Time,TemperatureF,DewpointF,PressureIn,WindDirection,WindDirectionDegrees,WindSpeedMPH,WindSpeedGustMPH,Humidity,HourlyPrecipIn,Conditions,Clouds,dailyrainin,SoftwareType,DateUTC
2013-01-31 00:03:00,52.2,48.4,29.15,ESE,112,3.1,3.1,87,0.00,,,0.00,WUHU21623XXSP,2013-01-31 05:03:00,
2013-01-31 00:12:00,52.0,48.2,29.15,ESE,112,3.1,3.1,87,0.00,,,0.00,WUHU21623XXSP,2013-01-31 05:12:00,
2013-01-31 00:21:00,51.8,48.0,29.14,SSE,157,4.5,4.7,87,0.00,,,0.00,WUHU21623XXSP,2013-01-31 05:21:00,
2013-01-31 00:27:00,51.8,48.0,29.13,South,180,4.5,4.5,87,0.00,,,0.00,WUHU21623XXSP,2013-01-31 05:27:00,
2013-01-31 00:35:00,51.8,48.0,29.12,SSE,157,6.0,6.0,87,0.00,,,0.00,WUHU21623XXSP,2013-01-31 05:35:00,
2013-01-31 00:44:00,51.6,47.8,29.12,SE,135,7.2,9.2,87,0.00,,,0.00,WUHU21623XXSP,2013-01-31 05:44:00,
2013-01-31 00:53:00,51.6,47.8,29.11,SSE,157,2.2,7.4,87,0.00,,,0.00,WUHU21623XXSP,2013-01-31 05:53:00,
2013-01-31 01:01:00,51.6,47.8,29.10,SSE,157,11.2,11.2,87,0.00,,,0.00,WUHU21623XXSP,2013-01-31 06:01:00,
2013-01-31 01:08:00,51.6,47.8,29.09,SSW,202,3.1,11.2,87,0.00,,,0.00,WUHU21623XXSP,2013-01-31 06:08:00,
2013-01-31 01:16:00,51.4,47.9,29.08,SE,135,4.3,5.4,88,0.00,,,0.00,WUHU21623XXSP,2013-01-31 06:16:00,
2013-01-31 01:20:00,51.4,47.9,29.08,SE,135,4.3,5.4,88,0.00,,,0.00,WUHU21623XXSP,2013-01-31 06:20:00,
2013-01-31 01:23:00,51.3,47.8,29.08,SSE,157,2.0,4.3,88,0.00,,,0.00,WUHU21623XXSP,2013-01-31 06:23:00,
2013-01-31 01:25:00,51.3,47.8,29.06,SSE,157,2.0,4.3,88,0.00,,,0.00,WUHU21623XXSP,2013-01-31 06:25:00,
2013-01-31 01:27:00,51.3,47.8,29.06,SSE,157,2.0,4.3,88,0.00,,,0.00,WUHU21623XXSP,2013-01-31 06:27:00,
2013-01-31 01:29:00,51.3,47.8,29.06,SSE,157,2.0,4.3,88,0.00,,,0.00,WUHU21623XXSP,2013-01-31 06:29:00,
2013-01-31 01:31:00,51.3,47.8,29.06,SSE,157,2.0,2.0,88,0.00,,,0.00,WUHU21623XXSP,2013-01-31 06:31:00,
2013-01-31 01:33:00,51.3,47.8,29.06,SSE,157,2.0,2.0,88,0.00,,,0.00,WUHU21623XXSP,2013-01-31 06:33:00,
2013-01-31 01:50:00,51.4,47.9,29.05,SSE,157,6.5,6.5,88,0.00,,,0.00,WUHU21623XXSP,2013-01-31 06:50:00,
2013-01-31 01:53:00,51.4,47.9,29.05,South,180,7.4,7.4,88,0.00,,,0.00,WUHU21623XXSP,2013-01-31 06:53:00,
2013-01-31 01:55:00,51.4,47.9,29.05,SSE,157,8.3,8.3,88,0.00,,,0.00,WUHU21623XXSP,2013-01-31 06:55:00,
2013-01-31 01:57:00,51.4,47.9,29.05,SSE,157,5.8,8.3,88,0.00,,,0.00,WUHU21623XXSP,2013-01-31 06:57:00,
2013-01-31 01:59:00,51.4,47.9,29.04,SE,135,2.7,8.3,88,0.00,,,0.00,WUHU21623XXSP,2013-01-31 06:59:00,
2013-01-31 02:01:00,51.4,47.9,29.04,SE,135,2.7,8.3,88,0.00,,,0.00,WUHU21623XXSP,2013-01-31 07:01:00,
2013-01-31 02:03:00,51.4,47.9,29.04,South,180,0.9,8.3,88,0.00,,,0.00,WUHU21623XXSP,2013-01-31 07:03:00,
2013-01-31 02:05:00,51.4,47.9,29.04,SSE,157,8.7,8.7,88,0.00,,,0.00,WUHU21623XXSP,2013-01-31 07:05:00,
2013-01-31 02:08:00,51.4,47.9,29.04,SE,135,5.6,8.7,88,0.00,,,0.00,WUHU21623XXSP,2013-01-31 07:08:00,
2013-01-31 02:10:00,51.4,47.9,29.04,SSE,157,4.7,8.7,88,0.00,,,0.00,WUHU21623XXSP,2013-01-31 07:10:00,
2013-01-31 02:12:00,51.4,47.9,29.04,South,180,5.8,8.7,88,0.00,,,0.00,WUHU21623XXSP,2013-01-31 07:12:00,
2013-01-31 02:14:00,51.3,47.8,29.04,SSE,157,3.6,8.7,88,0.00,,,0.00,WUHU21623XXSP,2013-01-31 07:14:00,
2013-01-31 02:16:00,51.3,47.8,29.04,SSE,157,3.6,5.8,88,0.00,,,0.00,WUHU21623XXSP,2013-01-31 07:16:00,
2013-01-31 02:18:00,51.3,47.8,29.04,SSE,157,3.6,5.8,88,0.00,,,0.00,WUHU21623XXSP,2013-01-31 07:18:00,
2013-01-31 02:20:00,51.1,47.6,29.03,SSE,157,3.6,5.8,88,0.00,,,0.00,WUHU21623XXSP,2013-01-31 07:20:00,
2013-01-31 02:23:00,51.1,47.6,29.03,SSE,157,1.6,3.6,88,0.00,,,0.00,WUHU21623XXSP,2013-01-31 07:23:00,
2013-01-31 02:25:00,51.1,47.6,29.03,South,180,3.8,3.8,88,0.00,,,0.00,WUHU21623XXSP,2013-01-31 07:25:00,
2013-01-31 02:27:00,51.1,47.6,29.02,South,180,0.9,3.8,88,0.00,,,0.00,WUHU21623XXSP,2013-01-31 07:27:00,
2013-01-31 02:29:00,50.9,47.4,29.02,SSE,157,0.7,3.8,88,0.00,,,0.00,WUHU21623XXSP,2013-01-31 07:29:00,
2013-01-31 02:31:00,50.9,47.4,29.02,SSE,157,0.7,3.8,88,0.00,,,0.00,WUHU21623XXSP,2013-01-31 07:31:00,
2013-01-31 02:33:00,50.7,47.2,29.02,SSE,157,2.2,3.8,88,0.00,,,0.00,WUHU21623XXSP,2013-01-31 07:33:00,
2013-01-31 02:35:00,50.7,47.2,29.02,SSE,157,5.4,5.4,88,0.00,,,0.00,WUHU21623XXSP,2013-01-31 07:35:00,
2013-01-31 02:38:00,50.7,47.2,29.02,SSE,157,5.4,5.4,88,0.00,,,0.00,WUHU21623XXSP,2013-01-31 07:38:00,
2013-01-31 02:40:00,50.7,47.2,29.01,SSE,157,5.4,5.4,88,0.00,,,0.00,WUHU21623XXSP,2013-01-31 07:40:00,
2013-01-31 02:42:00,50.5,47.0,29.00,SSE,157,5.4,5.4,88,0.00,,,0.00,WUHU21623XXSP,2013-01-31 07:42:00,
2013-01-31 02:44:00,50.5,47.0,28.99,SE,135,3.4,5.4,88,0.00,,,0.00,WUHU21623XXSP,2013-01-31 07:44:00,
2013-01-31 02:47:00,50.5,47.0,28.99,SE,135,3.4,5.4,88,0.00,,,0.00,WUHU21623XXSP,2013-01-31 07:47:00,
2013-01-31 02:49:00,50.5,47.0,28.98,SE,135,3.4,5.4,88,0.00,,,0.00,WUHU21623XXSP,2013-01-31 07:49:00,
2013-01-31 02:50:00,50.5,47.0,28.98,SE,135,3.4,5.4,88,0.00,,,0.00,WUHU21623XXSP,2013-01-31 07:50:00,
2013-01-31 02:53:00,50.5,47.0,28.97,SE,135,3.4,3.4,88,0.00,,,0.00,WUHU21623XXSP,2013-01-31 07:53:00,
2013-01-31 02:55:00,50.5,47.0,28.97,SE,135,3.4,3.4,88,0.00,,,0.00,WUHU21623XXSP,2013-01-31 07:55:00,
2013-01-31 02:57:00,50.5,47.0,28.97,SE,135,3.4,3.4,88,0.00,,,0.00,WUHU21623XXSP,2013-01-31 07:57:00,
2013-01-31 02:59:00,50.5,47.0,28.97,SE,135,3.4,3.4,88,0.00,,,0.00,WUHU21623XXSP,2013-01-31 07:59:00,
2013-01-31 03:01:00,50.5,47.0,28.97,SE,135,3.4,3.4,88,0.00,,,0.00,WUHU21623XXSP,2013-01-31 08:01:00,
2013-01-31 03:03:00,50.5,47.0,28.97,SE,135,3.4,3.4,88,0.00,,,0.00,WUHU21623XXSP,2013-01-31 08:03:00,
2013-01-31 03:05:00,50.5,47.0,28.97,SE,135,3.4,3.4,88,0.00,,,0.00,WUHU21623XXSP,2013-01-31 08:05:00,
2013-01-31 03:07:00,50.5,47.0,28.97,SE,135,3.4,3.4,88,0.00,,,0.00,WUHU21623XXSP,2013-01-31 08:07:00,
2013-01-31 03:10:00,50.5,47.0,28.98,South,180,5.4,5.4,88,0.00,,,0.00,WUHU21623XXSP,2013-01-31 08:10:00,
2013-01-31 03:12:00,50.5,47.0,28.98,South,180,5.4,5.4,88,0.00,,,0.00,WUHU21623XXSP,2013-01-31 08:12:00,
2013-01-31 03:14:00,50.5,47.0,28.98,South,180,5.4,5.4,88,0.00,,,0.00,WUHU21623XXSP,2013-01-31 08:14:00,
2013-01-31 03:16:00,50.5,47.0,28.98,South,180,5.4,5.4,88,0.00,,,0.00,WUHU21623XXSP,2013-01-31 08:16:00,
2013-01-31 03:18:00,50.5,47.0,28.98,South,180,5.4,5.4,88,0.00,,,0.00,WUHU21623XXSP,2013-01-31 08:18:00,
2013-01-31 03:33:00,51.4,47.9,28.98,SSW,202,6.0,6.0,88,0.00,,,0.00,WUHU21623XXSP,2013-01-31 08:33:00,
2013-01-31 03:35:00,51.4,47.9,28.97,SSW,202,7.6,7.6,88,0.00,,,0.00,WUHU21623XXSP,2013-01-31 08:35:00,
2013-01-31 03:37:00,51.4,47.9,28.97,SSW,202,7.6,7.6,88,0.00,,,0.00,WUHU21623XXSP,2013-01-31 08:37:00,
2013-01-31 03:40:00,51.4,47.9,28.97,South,180,4.0,7.6,88,0.00,,,0.00,WUHU21623XXSP,2013-01-31 08:40:00,
2013-01-31 03:42:00,51.4,47.9,28.98,South,180,4.0,7.6,88,0.00,,,0.00,WUHU21623XXSP,2013-01-31 08:42:00,
2013-01-31 03:44:00,51.4,47.9,28.97,South,180,4.0,7.6,88,0.00,,,0.00,WUHU21623XXSP,2013-01-31 08:44:00,
2013-01-31 03:47:00,51.4,47.9,28.97,South,180,4.0,7.6,88,0.00,,,0.00,WUHU21623XXSP,2013-01-31 08:47:00,
2013-01-31 03:49:00,51.4,47.9,28.98,South,180,4.0,4.0,88,0.00,,,0.00,WUHU21623XXSP,2013-01-31 08:49:00,
2013-01-31 03:50:00,51.1,47.6,28.99,WNW,292,7.6,7.6,88,0.00,,,0.00,WUHU21623XXSP,2013-01-31 08:50:00,
2013-01-31 03:53:00,51.1,47.6,28.99,WSW,247,11.2,11.2,88,0.00,,,0.00,WUHU21623XXSP,2013-01-31 08:53:00,
2013-01-31 03:55:00,51.1,47.6,28.97,WSW,247,11.2,11.2,88,0.00,,,0.00,WUHU21623XXSP,2013-01-31 08:55:00,
2013-01-31 03:57:00,51.1,47.6,28.97,WSW,247,11.2,11.2,88,0.00,,,0.00,WUHU21623XXSP,2013-01-31 08:57:00,
2013-01-31 03:59:00,51.1,47.6,28.99,WSW,247,11.2,11.2,88,0.00,,,0.00,WUHU21623XXSP,2013-01-31 08:59:00,
2013-01-31 04:01:00,50.5,47.0,29.01,WSW,247,11.2,11.2,88,0.00,,,0.00,WUHU21623XXSP,2013-01-31 09:01:00,
2013-01-31 04:04:00,46.8,42.8,29.01,WNW,292,11.0,11.2,86,0.00,,,0.00,WUHU21623XXSP,2013-01-31 09:04:00,
2013-01-31 04:06:00,46.8,43.1,29.02,WNW,292,11.0,11.2,87,0.00,,,0.00,WUHU21623XXSP,2013-01-31 09:06:00,
2013-01-31 04:08:00,45.1,41.5,29.02,NW,315,17.0,17.0,87,0.00,,,0.00,WUHU21623XXSP,2013-01-31 09:08:00,
2013-01-31 04:10:00,44.4,40.8,29.03,NW,315,17.0,17.0,87,0.00,,,0.00,WUHU21623XXSP,2013-01-31 09:10:00,
2013-01-31 04:12:00,44.4,40.8,29.04,NW,315,17.0,17.0,87,0.00,,,0.00,WUHU21623XXSP,2013-01-31 09:12:00,
2013-01-31 04:14:00,44.4,40.8,29.03,NW,315,17.0,17.0,87,0.00,,,0.00,WUHU21623XXSP,2013-01-31 09:14:00,
2013-01-31 04:16:00,44.4,40.8,29.04,NW,315,17.0,17.0,87,0.00,,,0.00,WUHU21623XXSP,2013-01-31 09:16:00,
2013-01-31 04:19:00,44.4,40.8,29.04,NW,315,17.0,17.0,87,0.00,,,0.00,WUHU21623XXSP,2013-01-31 09:19:00,
2013-01-31 04:21:00,44.4,40.8,29.05,NW,315,17.0,17.0,87,0.00,,,0.00,WUHU21623XXSP,2013-01-31 09:21:00,
2013-01-31 04:23:00,44.4,40.8,29.05,NW,315,17.0,17.0,87,0.00,,,0.00,WUHU21623XXSP,2013-01-31 09:23:00,
2013-01-31 04:25:00,42.1,37.9,29.05,West,270,17.0,17.0,85,0.00,,,0.00,WUHU21623XXSP,2013-01-31 09:25:00,
2013-01-31 04:27:00,42.1,37.9,29.05,West,270,17.0,17.0,85,0.00,,,0.00,WUHU21623XXSP,2013-01-31 09:27:00,
2013-01-31 04:29:00,42.1,37.9,29.05,West,270,17.0,17.0,85,0.00,,,0.00,WUHU21623XXSP,2013-01-31 09:29:00,
2013-01-31 04:31:00,42.1,37.9,29.05,West,270,17.0,17.0,85,0.00,,,0.00,WUHU21623XXSP,2013-01-31 09:31:00,
2013-01-31 04:34:00,41.4,37.4,29.06,WNW,292,8.9,17.0,86,0.00,,,0.00,WUHU21623XXSP,2013-01-31 09:34:00,
2013-01-31 04:36:00,40.8,36.9,29.06,NW,315,10.7,17.0,86,0.00,,,0.00,WUHU21623XXSP,2013-01-31 09:36:00,
2013-01-31 04:38:00,40.8,36.9,29.06,NW,315,10.7,17.0,86,0.00,,,0.00,WUHU21623XXSP,2013-01-31 09:38:00,
2013-01-31 04:41:00,40.6,36.7,29.06,West,270,7.4,17.0,86,0.00,,,0.00,WUHU21623XXSP,2013-01-31 09:41:00,
2013-01-31 04:43:00,40.3,36.4,29.06,NW,315,12.1,12.1,86,0.00,,,0.00,WUHU21623XXSP,2013-01-31 09:43:00,
2013-01-31 04:45:00,39.9,36.0,29.06,NW,315,12.3,12.3,86,0.00,,,0.00,WUHU21623XXSP,2013-01-31 09:45:00,
2013-01-31 04:47:00,39.9,36.0,29.07,NW,315,13.6,13.6,86,0.00,,,0.00,WUHU21623XXSP,2013-01-31 09:47:00,
2013-01-31 04:49:00,39.7,35.9,29.07,NW,315,13.6,13.6,86,0.00,,,0.00,WUHU21623XXSP,2013-01-31 09:49:00,
2013-01-31 04:51:00,39.6,35.7,29.07,WSW,247,8.1,13.6,86,0.00,,,0.00,WUHU21623XXSP,2013-01-31 09:51:00,
2013-01-31 04:54:00,39.4,35.5,29.08,WSW,247,8.1,13.6,86,0.00,,,0.00,WUHU21623XXSP,2013-01-31 09:54:00,
2013-01-31 04:56:00,39.0,35.2,29.08,WSW,247,8.1,13.6,86,0.00,,,0.00,WUHU21623XXSP,2013-01-31 09:56:00,
2013-01-31 04:58:00,39.0,35.2,29.08,WNW,292,19.0,19.0,86,0.00,,,0.00,WUHU21623XXSP,2013-01-31 09:58:00,
2013-01-31 05:00:00,39.0,35.2,29.08,WNW,292,8.5,19.0,86,0.00,,,0.00,WUHU21623XXSP,2013-01-31 10:00:00,
2013-01-31 05:02:00,38.8,35.0,29.07,WNW,292,8.9,19.0,86,0.00,,,0.00,WUHU21623XXSP,2013-01-31 10:02:00,
2013-01-31 05:04:00,38.5,34.6,29.07,WSW,247,7.2,19.0,86,0.00,,,0.00,WUHU21623XXSP,2013-01-31 10:04:00,
2013-01-31 05:06:00,38.3,34.4,29.07,WNW,292,3.6,19.0,86,0.00,,,0.00,WUHU21623XXSP,2013-01-31 10:06:00,
2013-01-31 05:08:00,38.1,34.3,29.07,West,270,7.8,8.9,86,0.00,,,0.00,WUHU21623XXSP,2013-01-31 10:08:00,
2013-01-31 05:11:00,38.1,34.3,29.07,NW,315,14.3,14.3,86,0.00,,,0.00,WUHU21623XXSP,2013-01-31 10:11:00,
2013-01-31 05:13:00,37.9,34.4,29.07,WNW,292,4.0,14.3,87,0.00,,,0.00,WUHU21623XXSP,2013-01-31 10:13:00,
2013-01-31 05:15:00,37.9,34.4,29.07,West,270,5.6,14.3,87,0.00,,,0.00,WUHU21623XXSP,2013-01-31 10:15:00,
2013-01-31 05:17:00,37.8,34.2,29.07,West,270,5.6,14.3,87,0.00,,,0.00,WUHU21623XXSP,2013-01-31 10:17:00,
2013-01-31 05:19:00,37.6,34.0,29.07,WNW,292,11.9,14.3,87,0.00,,,0.00,WUHU21623XXSP,2013-01-31 10:19:00,
2013-01-31 05:21:00,37.6,34.0,29.08,WNW,292,12.1,12.1,87,0.00,,,0.00,WUHU21623XXSP,2013-01-31 10:21:00,
2013-01-31 05:23:00,37.6,34.0,29.08,WNW,292,8.3,12.1,87,0.00,,,0.00,WUHU21623XXSP,2013-01-31 10:23:00,
2013-01-31 05:26:00,37.6,34.0,29.08,WNW,292,7.8,12.1,87,0.00,,,0.00,WUHU21623XXSP,2013-01-31 10:26:00,
2013-01-31 05:28:00,37.8,34.2,29.09,WNW,292,6.9,12.1,87,0.00,,,0.00,WUHU21623XXSP,2013-01-31 10:28:00,
2013-01-31 05:30:00,37.6,34.0,29.08,WSW,247,8.7,12.1,87,0.00,,,0.00,WUHU21623XXSP,2013-01-31 10:30:00,
2013-01-31 05:32:00,37.6,34.0,29.08,WNW,292,13.0,13.0,87,0.00,,,0.00,WUHU21623XXSP,2013-01-31 10:32:00,
2013-01-31 05:34:00,37.6,34.0,29.08,WSW,247,0.0,13.0,87,0.00,,,0.00,WUHU21623XXSP,2013-01-31 10:34:00,
2013-01-31 05:36:00,37.6,34.0,29.09,West,270,4.7,13.0,87,0.00,,,0.00,WUHU21623XXSP,2013-01-31 10:36:00,
2013-01-31 05:38:00,37.6,34.0,29.08,West,270,15.7,15.7,87,0.00,,,0.00,WUHU21623XXSP,2013-01-31 10:38:00,
2013-01-31 05:41:00,37.6,33.7,29.08,West,270,12.8,15.7,86,0.00,,,0.00,WUHU21623XXSP,2013-01-31 10:41:00,
2013-01-31 05:43:00,37.8,33.6,29.08,West,270,12.8,15.7,85,0.00,,,0.00,WUHU21623XXSP,2013-01-31 10:43:00,
2013-01-31 05:47:00,37.6,33.4,29.08,West,270,12.8,15.7,85,0.00,,,0.00,WUHU21623XXSP,2013-01-31 10:47:00,
2013-01-31 05:49:00,37.6,33.4,29.08,West,270,12.8,12.8,85,0.00,,,0.00,WUHU21623XXSP,2013-01-31 10:49:00,
2013-01-31 05:51:00,37.6,33.4,29.09,NW,315,13.0,13.0,85,0.00,,,0.00,WUHU21623XXSP,2013-01-31 10:51:00,
2013-01-31 05:53:00,37.2,32.8,29.09,WSW,247,9.4,13.0,84,0.00,,,0.00,WUHU21623XXSP,2013-01-31 10:53:00,
2013-01-31 05:56:00,37.2,32.8,29.09,NW,315,12.8,13.0,84,0.00,,,0.00,WUHU21623XXSP,2013-01-31 10:56:00,
2013-01-31 05:58:00,37.0,32.9,29.09,NW,315,6.3,13.0,85,0.00,,,0.00,WUHU21623XXSP,2013-01-31 10:58:00,
2013-01-31 06:00:00,36.9,32.7,29.09,West,270,6.3,13.0,85,0.00,,,0.00,WUHU21623XXSP,2013-01-31 11:00:00,
2013-01-31 06:02:00,36.7,32.5,29.10,West,270,5.1,12.8,85,0.00,,,0.00,WUHU21623XXSP,2013-01-31 11:02:00,
2013-01-31 06:04:00,36.7,32.8,29.10,NW,315,11.0,12.8,86,0.00,,,0.00,WUHU21623XXSP,2013-01-31 11:04:00,
2013-01-31 06:06:00,36.5,32.6,29.10,WNW,292,6.9,11.0,86,0.00,,,0.00,WUHU21623XXSP,2013-01-31 11:06:00,
2013-01-31 06:08:00,36.5,32.6,29.10,WNW,292,1.8,11.0,86,0.00,,,0.00,WUHU21623XXSP,2013-01-31 11:08:00,
2013-01-31 06:11:00,36.3,32.5,29.11,West,270,5.4,11.0,86,0.00,,,0.00,WUHU21623XXSP,2013-01-31 11:11:00,
2013-01-31 06:13:00,36.5,32.6,29.11,NNW,337,15.2,15.2,86,0.00,,,0.00,WUHU21623XXSP,2013-01-31 11:13:00,
2013-01-31 06:15:00,36.5,32.6,29.11,NNW,337,15.2,15.2,86,0.00,,,0.00,WUHU21623XXSP,2013-01-31 11:15:00,
2013-01-31 06:17:00,36.3,32.2,29.11,West,270,11.4,15.2,85,0.00,,,0.00,WUHU21623XXSP,2013-01-31 11:17:00,
2013-01-31 06:19:00,36.3,32.5,29.11,West,270,11.4,15.2,86,0.00,,,0.00,WUHU21623XXSP,2013-01-31 11:19:00,
2013-01-31 06:21:00,36.3,32.5,29.11,WSW,247,0.2,15.2,86,0.00,,,0.00,WUHU21623XXSP,2013-01-31 11:21:00,
2013-01-31 06:23:00,36.3,32.2,29.12,WSW,247,11.9,15.2,85,0.00,,,0.00,WUHU21623XXSP,2013-01-31 11:23:00,
2013-01-31 06:25:00,36.3,31.9,29.12,West,270,6.5,11.9,84,0.00,,,0.00,WUHU21623XXSP,2013-01-31 11:25:00,
2013-01-31 06:28:00,36.5,32.1,29.12,SW,225,10.1,11.9,84,0.00,,,0.00,WUHU21623XXSP,2013-01-31 11:28:00,
2013-01-31 06:30:00,36.7,32.3,29.12,WSW,247,5.6,11.9,84,0.00,,,0.00,WUHU21623XXSP,2013-01-31 11:30:00,
2013-01-31 06:32:00,36.7,31.7,29.12,WSW,247,5.6,11.9,82,0.00,,,0.00,WUHU21623XXSP,2013-01-31 11:32:00,
2013-01-31 06:34:00,36.7,31.7,29.12,West,270,10.5,10.5,82,0.00,,,0.00,WUHU21623XXSP,2013-01-31 11:34:00,
2013-01-31 06:36:00,36.7,31.7,29.12,West,270,10.5,10.5,82,0.00,,,0.00,WUHU21623XXSP,2013-01-31 11:36:00,
2013-01-31 06:38:00,36.7,31.7,29.12,West,270,10.5,10.5,82,0.00,,,0.00,WUHU21623XXSP,2013-01-31 11:38:00,
2013-01-31 06:41:00,36.7,30.8,29.12,West,270,10.5,10.5,79,0.00,,,0.00,WUHU21623XXSP,2013-01-31 11:41:00,
2013-01-31 06:43:00,36.9,31.6,29.12,NW,315,2.7,10.5,81,0.00,,,0.00,WUHU21623XXSP,2013-01-31 11:43:00,
2013-01-31 06:45:00,36.7,31.4,29.13,WNW,292,10.7,10.7,81,0.00,,,0.00,WUHU21623XXSP,2013-01-31 11:45:00,
2013-01-31 06:47:00,36.5,31.2,29.12,WSW,247,7.8,10.7,81,0.00,,,0.00,WUHU21623XXSP,2013-01-31 11:47:00,
2013-01-31 06:49:00,36.3,31.3,29.13,WNW,292,2.5,10.7,82,0.00,,,0.00,WUHU21623XXSP,2013-01-31 11:49:00,
2013-01-31 06:51:00,36.3,31.3,29.13,West,270,4.9,10.7,82,0.00,,,0.00,WUHU21623XXSP,2013-01-31 11:51:00,
2013-01-31 06:53:00,36.3,31.3,29.13,West,270,7.8,10.7,82,0.00,,,0.00,WUHU21623XXSP,2013-01-31 11:53:00,
2013-01-31 06:56:00,36.3,31.3,29.14,WSW,247,11.6,11.6,82,0.00,,,0.00,WUHU21623XXSP,2013-01-31 11:56:00,
2013-01-31 06:58:00,36.3,31.0,29.14,WNW,292,20.1,20.1,81,0.00,,,0.00,WUHU21623XXSP,2013-01-31 11:58:00,
2013-01-31 07:00:00,36.3,31.0,29.15,WNW,292,20.1,20.1,81,0.00,,,0.00,WUHU21623XXSP,2013-01-31 12:00:00,
2013-01-31 07:02:00,36.3,31.0,29.15,WNW,292,20.1,20.1,81,0.00,,,0.00,WUHU21623XXSP,2013-01-31 12:02:00,
2013-01-31 07:04:00,36.3,30.4,29.15,West,270,11.4,20.1,79,0.00,,,0.00,WUHU21623XXSP,2013-01-31 12:04:00,
2013-01-31 07:06:00,36.1,30.2,29.15,West,270,11.4,20.1,79,0.00,,,0.00,WUHU21623XXSP,2013-01-31 12:06:00,
2013-01-31 07:08:00,36.1,29.9,29.15,West,270,11.4,20.1,78,0.00,,,0.00,WUHU21623XXSP,2013-01-31 12:08:00,
2013-01-31 07:10:00,36.1,29.9,29.15,West,270,11.4,20.1,78,0.00,,,0.00,WUHU21623XXSP,2013-01-31 12:10:00,
2013-01-31 07:13:00,36.1,29.9,29.15,West,270,11.4,11.4,78,0.00,,,0.00,WUHU21623XXSP,2013-01-31 12:13:00,
2013-01-31 07:15:00,36.1,29.9,29.15,West,270,11.4,11.4,78,0.00,,,0.00,WUHU21623XXSP,2013-01-31 12:15:00,
2013-01-31 07:17:00,36.1,29.9,29.15,West,270,11.4,11.4,78,0.00,,,0.00,WUHU21623XXSP,2013-01-31 12:17:00,
2013-01-31 07:19:00,36.1,29.9,29.16,West,270,11.4,11.4,78,0.00,,,0.00,WUHU21623XXSP,2013-01-31 12:19:00,
2013-01-31 07:21:00,36.1,29.9,29.16,West,270,11.4,11.4,78,0.00,,,0.00,WUHU21623XXSP,2013-01-31 12:21:00,
2013-01-31 07:23:00,35.8,28.9,29.17,West,270,9.6,11.4,76,0.00,,,0.00,WUHU21623XXSP,2013-01-31 12:23:00,
2013-01-31 07:26:00,35.8,28.6,29.17,WNW,292,8.3,11.4,75,0.00,,,0.00,WUHU21623XXSP,2013-01-31 12:26:00,
2013-01-31 07:28:00,35.8,28.6,29.17,WNW,292,8.3,11.4,75,0.00,,,0.00,WUHU21623XXSP,2013-01-31 12:28:00,
2013-01-31 07:30:00,35.8,28.6,29.17,WNW,292,8.3,11.4,75,0.00,,,0.00,WUHU21623XXSP,2013-01-31 12:30:00,
2013-01-31 07:32:00,35.4,28.5,29.18,WNW,292,10.1,10.1,76,0.00,,,0.00,WUHU21623XXSP,2013-01-31 12:32:00,
2013-01-31 07:34:00,35.2,27.7,29.18,WNW,292,10.5,10.5,74,0.00,,,0.00,WUHU21623XXSP,2013-01-31 12:34:00,
2013-01-31 07:36:00,35.2,27.7,29.18,WNW,292,10.5,10.5,74,0.00,,,0.00,WUHU21623XXSP,2013-01-31 12:36:00,
2013-01-31 07:38:00,35.2,27.7,29.18,WNW,292,10.5,10.5,74,0.00,,,0.00,WUHU21623XXSP,2013-01-31 12:38:00,
2013-01-31 07:41:00,34.9,26.7,29.19,West,270,6.3,10.5,72,0.00,,,0.00,WUHU21623XXSP,2013-01-31 12:41:00,
2013-01-31 07:43:00,34.9,27.0,29.19,WNW,292,14.1,14.1,73,0.00,,,0.00,WUHU21623XXSP,2013-01-31 12:43:00,
2013-01-31 07:45:00,34.9,27.0,29.19,NW,315,14.8,14.8,73,0.00,,,0.00,WUHU21623XXSP,2013-01-31 12:45:00,
2013-01-31 07:47:00,34.9,27.0,29.19,NW,315,14.8,14.8,73,0.00,,,0.00,WUHU21623XXSP,2013-01-31 12:47:00,
2013-01-31 07:49:00,34.9,27.0,29.19,NW,315,14.8,14.8,73,0.00,,,0.00,WUHU21623XXSP,2013-01-31 12:49:00,
2013-01-31 07:51:00,34.9,27.0,29.19,NW,315,14.8,14.8,73,0.00,,,0.00,WUHU21623XXSP,2013-01-31 12:51:00,
2013-01-31 07:53:00,34.9,27.0,29.20,WSW,247,17.4,17.4,73,0.00,,,0.00,WUHU21623XXSP,2013-01-31 12:53:00,
2013-01-31 07:54:00,34.9,27.0,29.20,WSW,247,17.4,17.4,70,0.00,,,0.00,WUHU21623XXSP,2013-01-31 12:54:00,
2013-01-31 07:56:00,34.9,26.1,29.20,WSW,247,17.4,17.4,70,0.00,,,0.00,WUHU21623XXSP,2013-01-31 12:56:00,
2013-01-31 07:58:00,34.5,26.0,29.20,WSW,247,8.3,17.4,71,0.00,,,0.00,WUHU21623XXSP,2013-01-31 12:58:00,
2013-01-31 08:00:00,34.5,26.0,29.21,WSW,247,8.3,17.4,71,0.00,,,0.00,WUHU21623XXSP,2013-01-31 13:00:00,
2013-01-31 08:02:00,34.5,26.0,29.21,WSW,247,9.4,17.4,71,0.00,,,0.00,WUHU21623XXSP,2013-01-31 13:02:00,
2013-01-31 08:05:00,34.5,26.0,29.21,WNW,292,8.5,17.4,71,0.00,,,0.00,WUHU21623XXSP,2013-01-31 13:05:00,
2013-01-31 08:07:00,34.5,26.0,29.21,WNW,292,8.5,9.4,71,0.00,,,0.00,WUHU21623XXSP,2013-01-31 13:07:00,
2013-01-31 08:09:00,34.5,26.0,29.21,WNW,292,8.5,9.4,71,0.00,,,0.00,WUHU21623XXSP,2013-01-31 13:09:00,
2013-01-31 08:11:00,34.5,26.0,29.22,WNW,292,8.5,9.4,71,0.00,,,0.00,WUHU21623XXSP,2013-01-31 13:11:00,
2013-01-31 08:13:00,34.3,24.1,29.22,West,270,12.8,12.8,66,0.00,,,0.00,WUHU21623XXSP,2013-01-31 13:13:00,
2013-01-31 08:15:00,34.3,24.8,29.22,West,270,13.2,13.2,68,0.00,,,0.00,WUHU21623XXSP,2013-01-31 13:15:00,
2013-01-31 08:17:00,34.2,24.3,29.22,West,270,13.2,13.2,67,0.00,,,0.00,WUHU21623XXSP,2013-01-31 13:17:00,
2013-01-31 08:19:00,34.3,24.1,29.22,NNW,337,4.0,13.2,66,0.00,,,0.00,WUHU21623XXSP,2013-01-31 13:19:00,
2013-01-31 08:22:00,34.3,24.1,29.23,West,270,6.7,13.2,66,0.00,,,0.00,WUHU21623XXSP,2013-01-31 13:22:00,
2013-01-31 08:24:00,34.2,23.9,29.23,West,270,13.9,13.9,66,0.00,,,0.00,WUHU21623XXSP,2013-01-31 13:24:00,
2013-01-31 08:26:00,34.2,23.9,29.23,WSW,247,12.5,13.9,66,0.00,,,0.00,WUHU21623XXSP,2013-01-31 13:26:00,
2013-01-31 08:28:00,34.2,23.9,29.23,West,270,12.5,13.9,66,0.00,,,0.00,WUHU21623XXSP,2013-01-31 13:28:00,
2013-01-31 08:30:00,34.0,24.1,29.23,WSW,247,11.9,13.9,67,0.00,,,0.00,WUHU21623XXSP,2013-01-31 13:30:00,
2013-01-31 08:32:00,33.8,23.5,29.24,WSW,247,11.9,13.9,66,0.00,,,0.00,WUHU21623XXSP,2013-01-31 13:32:00,
2013-01-31 08:34:00,33.8,23.5,29.24,WSW,247,11.9,12.5,66,0.00,,,0.00,WUHU21623XXSP,2013-01-31 13:34:00,
2013-01-31 08:37:00,33.8,23.5,29.24,WSW,247,11.9,12.5,66,0.00,,,0.00,WUHU21623XXSP,2013-01-31 13:37:00,
2013-01-31 08:39:00,33.6,22.7,29.24,WSW,247,11.9,11.9,64,0.00,,,0.00,WUHU21623XXSP,2013-01-31 13:39:00,
2013-01-31 08:41:00,33.4,22.1,29.24,SW,225,8.1,11.9,63,0.00,,,0.00,WUHU21623XXSP,2013-01-31 13:41:00,
2013-01-31 08:43:00,33.4,22.1,29.25,SW,225,8.1,11.9,63,0.00,,,0.00,WUHU21623XXSP,2013-01-31 13:43:00,
2013-01-31 08:45:00,33.1,22.2,29.25,WNW,292,15.0,15.0,64,0.00,,,0.00,WUHU21623XXSP,2013-01-31 13:45:00,
2013-01-31 08:47:00,33.1,22.2,29.25,West,270,6.3,15.0,64,0.00,,,0.00,WUHU21623XXSP,2013-01-31 13:47:00,
2013-01-31 08:49:00,33.1,22.2,29.25,West,270,6.3,15.0,64,0.00,,,0.00,WUHU21623XXSP,2013-01-31 13:49:00,
2013-01-31 08:52:00,32.9,22.4,29.25,WNW,292,5.6,15.0,65,0.00,,,0.00,WUHU21623XXSP,2013-01-31 13:52:00,
2013-01-31 08:54:00,32.7,22.2,29.25,WNW,292,5.6,15.0,65,0.00,,,0.00,WUHU21623XXSP,2013-01-31 13:54:00,
2013-01-31 08:56:00,32.7,22.2,29.25,NW,315,5.8,6.3,65,0.00,,,0.00,WUHU21623XXSP,2013-01-31 13:56:00,
2013-01-31 08:58:00,32.7,22.2,29.25,NW,315,5.8,6.3,65,0.00,,,0.00,WUHU21623XXSP,2013-01-31 13:58:00,
2013-01-31 09:00:00,32.7,22.2,29.25,West,270,6.9,6.9,65,0.00,,,0.00,WUHU21623XXSP,2013-01-31 14:00:00,
2013-01-31 09:02:00,32.7,22.2,29.26,West,270,6.9,6.9,65,0.00,,,0.00,WUHU21623XXSP,2013-01-31 14:02:00,
2013-01-31 09:04:00,32.7,22.2,29.26,West,270,6.9,6.9,65,0.00,,,0.00,WUHU21623XXSP,2013-01-31 14:04:00,
2013-01-31 09:07:00,32.7,22.2,29.26,SW,225,11.9,11.9,65,0.00,,,0.00,WUHU21623XXSP,2013-01-31 14:07:00,
2013-01-31 09:09:00,32.7,21.8,29.26,West,270,14.5,14.5,64,0.00,,,0.00,WUHU21623XXSP,2013-01-31 14:09:00,
2013-01-31 09:11:00,32.7,21.8,29.26,West,270,14.5,14.5,64,0.00,,,0.00,WUHU21623XXSP,2013-01-31 14:11:00,
2013-01-31 09:13:00,32.7,21.8,29.26,West,270,14.5,14.5,64,0.00,,,0.00,WUHU21623XXSP,2013-01-31 14:13:00,
2013-01-31 09:15:00,32.7,21.8,29.26,West,270,14.5,14.5,64,0.00,,,0.00,WUHU21623XXSP,2013-01-31 14:15:00,
2013-01-31 09:17:00,32.7,21.8,29.27,West,270,14.5,14.5,64,0.00,,,0.00,WUHU21623XXSP,2013-01-31 14:17:00,
2013-01-31 09:19:00,32.2,22.1,29.27,NW,315,11.4,14.5,66,0.00,,,0.00,WUHU21623XXSP,2013-01-31 14:19:00,
2013-01-31 09:22:00,32.2,22.1,29.28,NW,315,11.4,14.5,66,0.00,,,0.00,WUHU21623XXSP,2013-01-31 14:22:00,
2013-01-31 09:24:00,32.2,22.1,29.28,NW,315,11.4,14.5,66,0.00,,,0.00,WUHU21623XXSP,2013-01-31 14:24:00,
2013-01-31 09:26:00,31.8,21.7,29.28,WNW,292,5.8,14.5,66,0.00,,,0.00,WUHU21623XXSP,2013-01-31 14:26:00,
2013-01-31 09:28:00,31.8,21.7,29.28,WNW,292,5.8,11.4,66,0.00,,,0.00,WUHU21623XXSP,2013-01-31 14:28:00,
2013-01-31 09:30:00,31.8,21.7,29.28,WNW,292,5.8,11.4,66,0.00,,,0.00,WUHU21623XXSP,2013-01-31 14:30:00,
2013-01-31 09:32:00,31.8,21.7,29.28,WNW,292,5.8,11.4,66,0.00,,,0.00,WUHU21623XXSP,2013-01-31 14:32:00,
2013-01-31 09:34:00,31.8,21.7,29.28,SW,225,6.5,6.5,67,0.00,,,0.00,WUHU21623XXSP,2013-01-31 14:34:00,
2013-01-31 09:37:00,31.6,21.9,29.28,SW,225,6.5,6.5,67,0.00,,,0.00,WUHU21623XXSP,2013-01-31 14:37:00,
2013-01-31 09:39:00,31.6,21.9,29.29,SW,225,6.5,6.5,67,0.00,,,0.00,WUHU21623XXSP,2013-01-31 14:39:00,
2013-01-31 09:41:00,31.6,21.9,29.29,SW,225,6.5,6.5,67,0.00,,,0.00,WUHU21623XXSP,2013-01-31 14:41:00,
2013-01-31 09:43:00,31.1,21.7,29.29,WSW,247,17.2,17.2,68,0.00,,,0.00,WUHU21623XXSP,2013-01-31 14:43:00,
2013-01-31 09:45:00,30.9,21.6,29.30,WNW,292,21.9,21.9,68,0.00,,,0.00,WUHU21623XXSP,2013-01-31 14:45:00,
2013-01-31 09:47:00,30.9,21.6,29.30,WNW,292,21.9,21.9,68,0.00,,,0.00,WUHU21623XXSP,2013-01-31 14:47:00,
2013-01-31 09:49:00,30.9,21.6,29.30,WNW,292,21.9,21.9,68,0.00,,,0.00,WUHU21623XXSP,2013-01-31 14:49:00,
2013-01-31 09:52:00,30.2,22.9,29.31,SSW,202,4.9,21.9,74,0.00,,,0.00,WUHU21623XXSP,2013-01-31 14:52:00,
2013-01-31 09:54:00,30.2,22.9,29.30,SSW,202,4.9,21.9,74,0.00,,,0.00,WUHU21623XXSP,2013-01-31 14:54:00,
2013-01-31 09:56:00,30.4,23.0,29.30,SSW,202,4.9,21.9,74,0.00,,,0.00,WUHU21623XXSP,2013-01-31 14:56:00,
2013-01-31 09:58:00,30.6,21.9,29.30,West,270,6.7,21.9,70,0.00,,,0.00,WUHU21623XXSP,2013-01-31 14:58:00,
2013-01-31 10:00:00,30.6,22.2,29.32,NW,315,11.2,11.2,71,0.00,,,0.00,WUHU21623XXSP,2013-01-31 15:00:00,
2013-01-31 10:02:00,30.6,22.2,29.31,NW,315,11.2,11.2,71,0.00,,,0.00,WUHU21623XXSP,2013-01-31 15:02:00,
2013-01-31 10:04:00,30.7,20.7,29.31,West,270,6.9,11.2,66,0.00,,,0.00,WUHU21623XXSP,2013-01-31 15:04:00,
2013-01-31 10:06:00,30.7,20.7,29.31,West,270,6.9,11.2,66,0.00,,,0.00,WUHU21623XXSP,2013-01-31 15:06:00,
2013-01-31 10:09:00,30.7,20.3,29.31,WNW,292,4.3,11.2,65,0.00,,,0.00,WUHU21623XXSP,2013-01-31 15:09:00,
2013-01-31 10:11:00,30.7,20.3,29.31,West,270,11.9,11.9,65,0.00,,,0.00,WUHU21623XXSP,2013-01-31 15:11:00,
2013-01-31 10:13:00,30.7,20.3,29.31,WSW,247,4.9,11.9,65,0.00,,,0.00,WUHU21623XXSP,2013-01-31 15:13:00,
2013-01-31 10:15:00,30.7,19.9,29.30,WNW,292,11.0,11.9,64,0.00,,,0.00,WUHU21623XXSP,2013-01-31 15:15:00,
2013-01-31 10:17:00,30.7,19.9,29.31,WNW,292,11.0,11.9,64,0.00,,,0.00,WUHU21623XXSP,2013-01-31 15:17:00,
2013-01-31 10:19:00,30.7,19.9,29.32,WNW,292,11.0,11.9,64,0.00,,,0.00,WUHU21623XXSP,2013-01-31 15:19:00,
2013-01-31 10:21:00,30.7,19.9,29.31,WNW,292,11.0,11.0,64,0.00,,,0.00,WUHU21623XXSP,2013-01-31 15:21:00,
2013-01-31 10:24:00,30.7,19.9,29.31,WNW,292,11.0,11.0,64,0.00,,,0.00,WUHU21623XXSP,2013-01-31 15:24:00,
2013-01-31 10:26:00,30.7,19.9,29.32,WNW,292,11.0,11.0,64,0.00,,,0.00,WUHU21623XXSP,2013-01-31 15:26:00,
2013-01-31 10:28:00,30.9,18.7,29.32,WNW,292,11.9,11.9,60,0.00,,,0.00,WUHU21623XXSP,2013-01-31 15:28:00,
2013-01-31 10:31:00,31.1,19.2,29.32,West,270,12.5,12.5,61,0.00,,,0.00,WUHU21623XXSP,2013-01-31 15:31:00,
2013-01-31 10:33:00,30.9,19.4,29.33,West,270,6.9,12.5,62,0.00,,,0.00,WUHU21623XXSP,2013-01-31 15:33:00,
2013-01-31 10:35:00,30.9,19.4,29.33,West,270,6.9,12.5,62,0.00,,,0.00,WUHU21623XXSP,2013-01-31 15:35:00,
2013-01-31 10:37:00,30.9,19.4,29.33,West,270,6.9,12.5,62,0.00,,,0.00,WUHU21623XXSP,2013-01-31 15:37:00,
2013-01-31 10:39:00,30.9,19.4,29.33,West,270,6.9,12.5,62,0.00,,,0.00,WUHU21623XXSP,2013-01-31 15:39:00,
2013-01-31 10:41:00,30.0,19.2,29.33,NW,315,11.2,11.2,64,0.00,,,0.00,WUHU21623XXSP,2013-01-31 15:41:00,
2013-01-31 10:42:00,30.0,19.2,29.33,NW,315,11.2,11.2,64,0.00,,,0.00,WUHU21623XXSP,2013-01-31 15:42:00,
2013-01-31 10:45:00,30.0,19.6,29.33,NW,315,11.2,11.2,65,0.00,,,0.00,WUHU21623XXSP,2013-01-31 15:45:00,
2013-01-31 10:47:00,30.2,19.4,29.33,WNW,292,9.4,11.2,64,0.00,,,0.00,WUHU21623XXSP,2013-01-31 15:47:00,
2013-01-31 10:49:00,30.4,19.6,29.33,WNW,292,11.0,11.2,64,0.00,,,0.00,WUHU21623XXSP,2013-01-31 15:49:00,
2013-01-31 10:51:00,30.4,19.6,29.33,SW,225,11.9,11.9,64,0.00,,,0.00,WUHU21623XXSP,2013-01-31 15:51:00,
2013-01-31 10:53:00,30.4,19.6,29.33,WNW,292,11.0,11.9,64,0.00,,,0.00,WUHU21623XXSP,2013-01-31 15:53:00,
2013-01-31 10:55:00,30.2,19.0,29.33,WNW,292,3.6,11.9,63,0.00,,,0.00,WUHU21623XXSP,2013-01-31 15:55:00,
2013-01-31 10:57:00,30.2,19.0,29.33,WNW,292,3.6,11.9,63,0.00,,,0.00,WUHU21623XXSP,2013-01-31 15:57:00,
2013-01-31 10:59:00,30.2,19.0,29.33,WNW,292,3.6,11.9,63,0.00,,,0.00,WUHU21623XXSP,2013-01-31 15:59:00,
2013-01-31 11:02:00,30.2,19.0,29.33,WNW,292,3.6,11.0,63,0.00,,,0.00,WUHU21623XXSP,2013-01-31 16:02:00,
2013-01-31 11:04:00,30.2,19.0,29.33,WNW,292,3.6,3.6,63,0.00,,,0.00,WUHU21623XXSP,2013-01-31 16:04:00,
2013-01-31 11:06:00,30.2,19.0,29.33,WNW,292,3.6,3.6,63,0.00,,,0.00,WUHU21623XXSP,2013-01-31 16:06:00,
2013-01-31 11:09:00,30.2,19.0,29.33,West,270,14.8,14.8,63,0.00,,,0.00,WUHU21623XXSP,2013-01-31 16:09:00,
2013-01-31 11:11:00,30.0,19.2,29.33,WNW,292,14.5,14.8,64,0.00,,,0.00,WUHU21623XXSP,2013-01-31 16:11:00,
2013-01-31 11:13:00,30.0,19.2,29.33,WNW,292,14.5,14.8,64,0.00,,,0.00,WUHU21623XXSP,2013-01-31 16:13:00,
2013-01-31 11:15:00,29.8,19.8,29.33,NW,315,9.8,14.8,66,0.00,,,0.00,WUHU21623XXSP,2013-01-31 16:15:00,
2013-01-31 11:18:00,29.8,19.8,29.33,SW,225,8.1,14.8,66,0.00,,,0.00,WUHU21623XXSP,2013-01-31 16:18:00,
2013-01-31 11:20:00,29.8,19.8,29.33,SW,225,8.1,14.5,66,0.00,,,0.00,WUHU21623XXSP,2013-01-31 16:20:00,
2013-01-31 11:22:00,29.8,19.8,29.33,SW,225,8.1,14.5,66,0.00,,,0.00,WUHU21623XXSP,2013-01-31 16:22:00,
2013-01-31 11:24:00,29.8,19.8,29.33,SW,225,8.1,9.8,66,0.00,,,0.00,WUHU21623XXSP,2013-01-31 16:24:00,
2013-01-31 11:26:00,29.5,20.9,29.33,West,270,6.5,8.1,70,0.00,,,0.00,WUHU21623XXSP,2013-01-31 16:26:00,
2013-01-31 11:28:00,29.5,20.9,29.33,West,270,6.5,8.1,70,0.00,,,0.00,WUHU21623XXSP,2013-01-31 16:28:00,
2013-01-31 11:30:00,29.5,20.9,29.33,West,270,6.5,8.1,70,0.00,,,0.00,WUHU21623XXSP,2013-01-31 16:30:00,
2013-01-31 11:33:00,29.5,20.9,29.34,WNW,292,10.3,10.3,70,0.00,,,0.00,WUHU21623XXSP,2013-01-31 16:33:00,
2013-01-31 11:35:00,28.6,20.1,29.34,WSW,247,12.1,12.1,70,0.00,,,0.00,WUHU21623XXSP,2013-01-31 16:35:00,
2013-01-31 11:37:00,28.6,20.1,29.34,WSW,247,12.1,12.1,70,0.00,,,0.00,WUHU21623XXSP,2013-01-31 16:37:00,
2013-01-31 11:39:00,28.6,20.1,29.34,WSW,247,12.1,12.1,70,0.00,,,0.00,WUHU21623XXSP,2013-01-31 16:39:00,
2013-01-31 11:41:00,28.8,21.8,29.34,WNW,292,7.8,12.1,75,0.00,,,0.00,WUHU21623XXSP,2013-01-31 16:41:00,
2013-01-31 11:43:00,28.9,21.7,29.34,WSW,247,5.4,12.1,74,0.00,,,0.00,WUHU21623XXSP,2013-01-31 16:43:00,
2013-01-31 11:46:00,29.3,21.7,29.34,West,270,8.3,12.1,73,0.00,,,0.00,WUHU21623XXSP,2013-01-31 16:46:00,
2013-01-31 11:48:00,29.5,21.8,29.35,WSW,247,7.2,12.1,73,0.00,,,0.00,WUHU21623XXSP,2013-01-31 16:48:00,
2013-01-31 11:50:00,29.5,20.6,29.35,West,270,7.4,8.3,69,0.00,,,0.00,WUHU21623XXSP,2013-01-31 16:50:00,
2013-01-31 11:52:00,29.5,20.6,29.34,West,270,7.4,8.3,69,0.00,,,0.00,WUHU21623XXSP,2013-01-31 16:52:00,
2013-01-31 11:54:00,29.5,20.6,29.34,West,270,11.6,11.6,69,0.00,,,0.00,WUHU21623XXSP,2013-01-31 16:54:00,
2013-01-31 11:56:00,29.5,20.6,29.34,West,270,11.6,11.6,69,0.00,,,0.00,WUHU21623XXSP,2013-01-31 16:56:00,
2013-01-31 11:58:00,29.5,20.6,29.34,West,270,11.6,11.6,69,0.00,,,0.00,WUHU21623XXSP,2013-01-31 16:58:00,
2013-01-31 12:00:00,29.5,20.6,29.34,West,270,11.6,11.6,69,0.00,,,0.00,WUHU21623XXSP,2013-01-31 17:00:00,
2013-01-31 12:03:00,29.5,20.6,29.34,West,270,11.6,11.6,69,0.00,,,0.00,WUHU21623XXSP,2013-01-31 17:03:00,
2013-01-31 12:05:00,30.0,21.0,29.34,WSW,247,11.9,11.9,69,0.00,,,0.00,WUHU21623XXSP,2013-01-31 17:05:00,
2013-01-31 12:07:00,30.2,18.7,29.34,West,270,10.7,11.9,62,0.00,,,0.00,WUHU21623XXSP,2013-01-31 17:07:00,
2013-01-31 12:09:00,30.2,18.7,29.34,West,270,10.7,11.9,62,0.00,,,0.00,WUHU21623XXSP,2013-01-31 17:09:00,
2013-01-31 12:10:00,30.2,18.7,29.34,West,270,10.7,11.9,62,0.00,,,0.00,WUHU21623XXSP,2013-01-31 17:10:00,
2013-01-31 12:11:00,30.2,18.7,29.34,West,270,10.7,11.9,62,0.00,,,0.00,WUHU21623XXSP,2013-01-31 17:11:00,
2013-01-31 12:12:00,30.2,18.7,29.35,West,270,10.7,11.9,62,0.00,,,0.00,WUHU21623XXSP,2013-01-31 17:12:00,
2013-01-31 12:13:00,30.2,18.7,29.35,West,270,10.7,11.9,62,0.00,,,0.00,WUHU21623XXSP,2013-01-31 17:13:00,
2013-01-31 12:14:00,29.7,18.7,29.35,NW,315,14.8,14.8,62,0.00,,,0.00,WUHU21623XXSP,2013-01-31 17:14:00,
2013-01-31 12:16:00,29.7,18.2,29.35,NW,315,14.8,14.8,62,0.00,,,0.00,WUHU21623XXSP,2013-01-31 17:16:00,
2013-01-31 12:18:00,29.7,18.2,29.35,NW,315,14.8,14.8,62,0.00,,,0.00,WUHU21623XXSP,2013-01-31 17:18:00,
2013-01-31 12:20:00,29.8,18.7,29.35,WSW,247,12.5,14.8,63,0.00,,,0.00,WUHU21623XXSP,2013-01-31 17:20:00,
2013-01-31 12:22:00,29.8,18.7,29.35,WSW,247,12.5,14.8,63,0.00,,,0.00,WUHU21623XXSP,2013-01-31 17:22:00,
2013-01-31 12:25:00,29.8,18.7,29.35,WSW,247,12.5,14.8,63,0.00,,,0.00,WUHU21623XXSP,2013-01-31 17:25:00,
2013-01-31 12:27:00,29.8,18.7,29.35,WNW,292,10.1,14.8,63,0.00,,,0.00,WUHU21623XXSP,2013-01-31 17:27:00,
2013-01-31 12:29:00,29.8,18.7,29.35,WNW,292,10.1,12.5,63,0.00,,,0.00,WUHU21623XXSP,2013-01-31 17:29:00,
2013-01-31 12:31:00,29.8,18.7,29.35,WNW,292,10.1,12.5,63,0.00,,,0.00,WUHU21623XXSP,2013-01-31 17:31:00,
2013-01-31 12:32:00,29.7,18.7,29.35,NW,315,14.8,14.8,62,0.00,,,0.00,WUHU21623XXSP,2013-01-31 17:32:00,
2013-01-31 12:34:00,29.8,18.7,29.35,WNW,292,10.1,12.5,63,0.00,,,0.00,WUHU21623XXSP,2013-01-31 17:34:00,
2013-01-31 12:36:00,31.3,20.5,29.35,SW,225,7.8,10.1,64,0.00,,,0.00,WUHU21623XXSP,2013-01-31 17:36:00,
2013-01-31 12:38:00,31.3,20.5,29.36,SW,225,7.8,10.1,64,0.00,,,0.00,WUHU21623XXSP,2013-01-31 17:38:00,
2013-01-31 12:40:00,30.7,19.6,29.36,WNW,292,9.8,10.1,63,0.00,,,0.00,WUHU21623XXSP,2013-01-31 17:40:00,
2013-01-31 12:42:00,30.7,19.6,29.36,WNW,292,9.8,10.1,63,0.00,,,0.00,WUHU21623XXSP,2013-01-31 17:42:00,
2013-01-31 12:44:00,29.8,19.4,29.36,WNW,292,9.8,9.8,65,0.00,,,0.00,WUHU21623XXSP,2013-01-31 17:44:00,
2013-01-31 12:46:00,29.8,19.4,29.36,WNW,292,9.8,9.8,65,0.00,,,0.00,WUHU21623XXSP,2013-01-31 17:46:00,
2013-01-31 12:49:00,29.3,20.0,29.36,NW,315,8.3,9.8,68,0.00,,,0.00,WUHU21623XXSP,2013-01-31 17:49:00,
2013-01-31 12:51:00,29.3,20.0,29.36,NW,315,8.3,9.8,68,0.00,,,0.00,WUHU21623XXSP,2013-01-31 17:51:00,
2013-01-31 12:53:00,28.9,19.7,29.36,WNW,292,7.8,9.8,68,0.00,,,0.00,WUHU21623XXSP,2013-01-31 17:53:00,
2013-01-31 12:55:00,28.9,20.4,29.36,NW,315,7.2,9.8,70,0.00,,,0.00,WUHU21623XXSP,2013-01-31 17:55:00,
2013-01-31 12:57:00,28.9,20.4,29.36,NW,315,7.2,8.3,70,0.00,,,0.00,WUHU21623XXSP,2013-01-31 17:57:00,
2013-01-31 12:59:00,29.1,19.5,29.36,NW,315,7.8,8.3,67,0.00,,,0.00,WUHU21623XXSP,2013-01-31 17:59:00,
2013-01-31 13:02:00,29.1,19.9,29.36,WNW,292,5.8,7.8,68,0.00,,,0.00,WUHU21623XXSP,2013-01-31 18:02:00,
2013-01-31 13:04:00,29.1,19.9,29.36,NW,315,8.3,8.3,68,0.00,,,0.00,WUHU21623XXSP,2013-01-31 18:04:00,
2013-01-31 13:06:00,29.1,19.9,29.36,NW,315,8.3,8.3,68,0.00,,,0.00,WUHU21623XXSP,2013-01-31 18:06:00,
2013-01-31 13:08:00,29.3,19.3,29.36,WNW,292,7.2,8.3,66,0.00,,,0.00,WUHU21623XXSP,2013-01-31 18:08:00,
2013-01-31 13:10:00,29.3,19.3,29.37,WNW,292,7.2,8.3,66,0.00,,,0.00,WUHU21623XXSP,2013-01-31 18:10:00,
2013-01-31 13:12:00,29.3,19.3,29.37,WNW,292,7.2,8.3,66,0.00,,,0.00,WUHU21623XXSP,2013-01-31 18:12:00,
2013-01-31 13:14:00,29.3,19.3,29.37,WNW,292,7.2,8.3,66,0.00,,,0.00,WUHU21623XXSP,2013-01-31 18:14:00,
2013-01-31 13:16:00,28.8,19.5,29.37,WNW,292,16.1,16.1,68,0.00,,,0.00,WUHU21623XXSP,2013-01-31 18:16:00,
2013-01-31 13:19:00,28.8,19.5,29.37,WNW,292,5.1,16.1,68,0.00,,,0.00,WUHU21623XXSP,2013-01-31 18:19:00,
2013-01-31 13:21:00,28.8,19.5,29.37,WNW,292,15.7,16.1,68,0.00,,,0.00,WUHU21623XXSP,2013-01-31 18:21:00,
2013-01-31 13:23:00,28.8,19.2,29.37,WNW,292,2.0,16.1,67,0.00,,,0.00,WUHU21623XXSP,2013-01-31 18:23:00,
2013-01-31 13:25:00,28.6,18.7,29.37,West,270,10.5,16.1,66,0.00,,,0.00,WUHU21623XXSP,2013-01-31 18:25:00,
2013-01-31 13:27:00,28.6,18.7,29.37,West,270,6.7,15.7,66,0.00,,,0.00,WUHU21623XXSP,2013-01-31 18:27:00,
2013-01-31 13:29:00,28.6,18.7,29.37,West,270,8.9,15.7,66,0.00,,,0.00,WUHU21623XXSP,2013-01-31 18:29:00,
2013-01-31 13:31:00,28.6,19.4,29.37,West,270,18.3,18.3,68,0.00,,,0.00,WUHU21623XXSP,2013-01-31 18:31:00,
2013-01-31 13:34:00,28.6,19.4,29.38,West,270,12.5,18.3,68,0.00,,,0.00,WUHU21623XXSP,2013-01-31 18:34:00,
2013-01-31 13:36:00,28.6,21.0,29.38,West,270,21.9,21.9,73,0.00,,,0.00,WUHU21623XXSP,2013-01-31 18:36:00,
2013-01-31 13:38:00,28.6,21.0,29.38,West,270,21.9,21.9,73,0.00,,,0.00,WUHU21623XXSP,2013-01-31 18:38:00,
2013-01-31 13:40:00,28.6,21.0,29.38,West,270,21.9,21.9,73,0.00,,,0.00,WUHU21623XXSP,2013-01-31 18:40:00,
2013-01-31 13:42:00,28.2,20.4,29.37,SW,225,11.0,21.9,72,0.00,,,0.00,WUHU21623XXSP,2013-01-31 18:42:00,
2013-01-31 13:44:00,28.2,20.4,29.38,SW,225,11.0,21.9,72,0.00,,,0.00,WUHU21623XXSP,2013-01-31 18:44:00,
2013-01-31 13:46:00,28.2,20.4,29.38,SW,225,11.0,21.9,72,0.00,,,0.00,WUHU21623XXSP,2013-01-31 18:46:00,
2013-01-31 13:49:00,30.0,22.0,29.37,NNW,337,13.4,21.9,72,0.00,,,0.00,WUHU21623XXSP,2013-01-31 18:49:00,
2013-01-31 13:51:00,30.0,21.0,29.37,WNW,292,8.3,13.4,69,0.00,,,0.00,WUHU21623XXSP,2013-01-31 18:51:00,
2013-01-31 13:53:00,30.0,21.0,29.38,WNW,292,8.3,13.4,69,0.00,,,0.00,WUHU21623XXSP,2013-01-31 18:53:00,
2013-01-31 13:55:00,30.0,21.0,29.38,WNW,292,8.3,13.4,69,0.00,,,0.00,WUHU21623XXSP,2013-01-31 18:55:00,
2013-01-31 13:57:00,30.4,21.4,29.38,WNW,292,8.3,13.4,69,0.00,,,0.00,WUHU21623XXSP,2013-01-31 18:57:00,
2013-01-31 13:59:00,30.4,21.4,29.38,WNW,292,8.3,8.3,69,0.00,,,0.00,WUHU21623XXSP,2013-01-31 18:59:00,
2013-01-31 14:01:00,30.4,19.6,29.38,WNW,292,7.6,8.3,64,0.00,,,0.00,WUHU21623XXSP,2013-01-31 19:01:00,
2013-01-31 14:03:00,30.4,19.6,29.38,WNW,292,7.6,8.3,64,0.00,,,0.00,WUHU21623XXSP,2013-01-31 19:03:00,
2013-01-31 14:06:00,30.4,19.6,29.38,WNW,292,7.6,8.3,64,0.00,,,0.00,WUHU21623XXSP,2013-01-31 19:06:00,
2013-01-31 14:08:00,30.0,18.9,29.39,NW,315,6.3,8.3,63,0.00,,,0.00,WUHU21623XXSP,2013-01-31 19:08:00,
2013-01-31 14:10:00,29.8,19.1,29.39,NW,315,6.3,7.6,64,0.00,,,0.00,WUHU21623XXSP,2013-01-31 19:10:00,
2013-01-31 14:13:00,28.2,20.7,29.39,WNW,292,7.6,7.6,73,0.00,,,0.00,WUHU21623XXSP,2013-01-31 19:13:00,
2013-01-31 14:15:00,27.7,20.4,29.39,WNW,292,15.2,15.2,74,0.00,,,0.00,WUHU21623XXSP,2013-01-31 19:15:00,
2013-01-31 14:17:00,27.7,20.4,29.40,WNW,292,15.2,15.2,74,0.00,,,0.00,WUHU21623XXSP,2013-01-31 19:17:00,
2013-01-31 14:19:00,27.7,20.4,29.40,WNW,292,15.2,15.2,74,0.00,,,0.00,WUHU21623XXSP,2013-01-31 19:19:00,
2013-01-31 14:21:00,27.7,20.4,29.40,WNW,292,15.2,15.2,74,0.00,,,0.00,WUHU21623XXSP,2013-01-31 19:21:00,
2013-01-31 14:23:00,27.7,20.4,29.40,WNW,292,15.2,15.2,74,0.00,,,0.00,WUHU21623XXSP,2013-01-31 19:23:00,
2013-01-31 14:25:00,27.5,21.5,29.40,NW,315,8.3,15.2,78,0.00,,,0.00,WUHU21623XXSP,2013-01-31 19:25:00,
2013-01-31 14:28:00,27.5,21.5,29.41,NW,315,8.3,15.2,78,0.00,,,0.00,WUHU21623XXSP,2013-01-31 19:28:00,
2013-01-31 14:30:00,27.7,21.7,29.41,NW,315,10.5,15.2,78,0.00,,,0.00,WUHU21623XXSP,2013-01-31 19:30:00,
2013-01-31 14:32:00,27.7,21.7,29.41,NW,315,10.5,15.2,78,0.00,,,0.00,WUHU21623XXSP,2013-01-31 19:32:00,
2013-01-31 14:34:00,27.7,21.7,29.41,NW,315,10.5,10.5,78,0.00,,,0.00,WUHU21623XXSP,2013-01-31 19:34:00,
2013-01-31 14:36:00,27.7,21.7,29.41,NW,315,10.5,10.5,78,0.00,,,0.00,WUHU21623XXSP,2013-01-31 19:36:00,
2013-01-31 14:38:00,27.7,21.7,29.41,NW,315,10.5,10.5,78,0.00,,,0.00,WUHU21623XXSP,2013-01-31 19:38:00,
2013-01-31 14:40:00,27.7,21.7,29.41,NW,315,10.5,10.5,78,0.00,,,0.00,WUHU21623XXSP,2013-01-31 19:40:00,
2013-01-31 14:43:00,27.7,21.7,29.41,NW,315,10.5,10.5,78,0.00,,,0.00,WUHU21623XXSP,2013-01-31 19:43:00,
2013-01-31 14:45:00,27.1,21.1,29.41,NW,315,8.9,10.5,78,0.00,,,0.00,WUHU21623XXSP,2013-01-31 19:45:00,
2013-01-31 14:47:00,27.1,21.1,29.42,NW,315,8.9,10.5,78,0.00,,,0.00,WUHU21623XXSP,2013-01-31 19:47:00,
2013-01-31 14:49:00,27.1,21.1,29.42,NW,315,8.9,10.5,78,0.00,,,0.00,WUHU21623XXSP,2013-01-31 19:49:00,
2013-01-31 14:51:00,27.1,21.1,29.42,NW,315,7.2,10.5,78,0.00,,,0.00,WUHU21623XXSP,2013-01-31 19:51:00,
2013-01-31 14:53:00,27.1,21.1,29.42,WNW,292,5.6,8.9,78,0.00,,,0.00,WUHU21623XXSP,2013-01-31 19:53:00,
2013-01-31 14:55:00,27.1,21.1,29.42,WSW,247,7.4,8.9,78,0.00,,,0.00,WUHU21623XXSP,2013-01-31 19:55:00,
2013-01-31 14:58:00,27.3,21.3,29.42,WSW,247,7.4,8.9,78,0.00,,,0.00,WUHU21623XXSP,2013-01-31 19:58:00,
2013-01-31 15:00:00,27.1,20.2,29.42,NW,315,6.9,7.4,75,0.00,,,0.00,WUHU21623XXSP,2013-01-31 20:00:00,
2013-01-31 15:02:00,27.3,19.8,29.42,WNW,292,15.7,15.7,73,0.00,,,0.00,WUHU21623XXSP,2013-01-31 20:02:00,
2013-01-31 15:04:00,27.3,19.8,29.43,West,270,9.6,15.7,73,0.00,,,0.00,WUHU21623XXSP,2013-01-31 20:04:00,
2013-01-31 15:06:00,27.3,19.8,29.43,West,270,9.6,15.7,73,0.00,,,0.00,WUHU21623XXSP,2013-01-31 20:06:00,
2013-01-31 15:08:00,27.3,19.8,29.42,West,270,9.6,15.7,73,0.00,,,0.00,WUHU21623XXSP,2013-01-31 20:08:00,
2013-01-31 15:10:00,27.5,19.8,29.43,West,270,9.6,15.7,73,0.00,,,0.00,WUHU21623XXSP,2013-01-31 20:10:00,
2013-01-31 15:12:00,27.5,20.0,29.43,West,270,9.6,9.6,73,0.00,,,0.00,WUHU21623XXSP,2013-01-31 20:12:00,
2013-01-31 15:15:00,27.5,20.0,29.43,SW,225,19.2,19.2,73,0.00,,,0.00,WUHU21623XXSP,2013-01-31 20:15:00,
2013-01-31 15:17:00,27.5,20.0,29.43,SW,225,19.2,19.2,73,0.00,,,0.00,WUHU21623XXSP,2013-01-31 20:17:00,
2013-01-31 15:19:00,27.5,20.0,29.43,SW,225,19.2,19.2,73,0.00,,,0.00,WUHU21623XXSP,2013-01-31 20:19:00,
2013-01-31 15:21:00,27.5,18.0,29.43,SW,225,19.2,19.2,67,0.00,,,0.00,WUHU21623XXSP,2013-01-31 20:21:00,
2013-01-31 15:23:00,27.5,18.0,29.43,SW,225,19.2,19.2,67,0.00,,,0.00,WUHU21623XXSP,2013-01-31 20:23:00,
2013-01-31 15:25:00,27.7,17.1,29.43,West,270,12.1,19.2,64,0.00,,,0.00,WUHU21623XXSP,2013-01-31 20:25:00,
2013-01-31 15:26:00,27.7,17.1,29.43,West,270,12.1,19.2,64,0.00,,,0.00,WUHU21623XXSP,2013-01-31 20:26:00,
2013-01-31 15:28:00,27.7,17.1,29.43,West,270,12.1,19.2,64,0.00,,,0.00,WUHU21623XXSP,2013-01-31 20:28:00,
2013-01-31 15:30:00,27.7,17.1,29.43,West,270,12.1,19.2,64,0.00,,,0.00,WUHU21623XXSP,2013-01-31 20:30:00,
2013-01-31 15:32:00,27.7,17.1,29.43,West,270,12.1,19.2,64,0.00,,,0.00,WUHU21623XXSP,2013-01-31 20:32:00,
2013-01-31 15:34:00,27.7,17.1,29.44,West,270,12.1,12.1,64,0.00,,,0.00,WUHU21623XXSP,2013-01-31 20:34:00,
2013-01-31 15:37:00,27.7,17.1,29.44,West,270,12.1,12.1,64,0.00,,,0.00,WUHU21623XXSP,2013-01-31 20:37:00,
2013-01-31 15:39:00,27.1,17.1,29.44,West,270,12.1,12.1,64,0.00,,,0.00,WUHU21623XXSP,2013-01-31 20:39:00,
2013-01-31 15:41:00,27.1,16.9,29.44,NNW,337,16.3,16.3,65,0.00,,,0.00,WUHU21623XXSP,2013-01-31 20:41:00,
2013-01-31 15:43:00,27.1,16.9,29.44,NNW,337,16.3,16.3,65,0.00,,,0.00,WUHU21623XXSP,2013-01-31 20:43:00,
2013-01-31 15:45:00,27.1,16.9,29.44,NNW,337,16.3,16.3,65,0.00,,,0.00,WUHU21623XXSP,2013-01-31 20:45:00,
2013-01-31 15:47:00,27.1,16.5,29.44,NW,315,16.8,16.8,64,0.00,,,0.00,WUHU21623XXSP,2013-01-31 20:47:00,
2013-01-31 15:50:00,27.1,16.5,29.44,NW,315,16.8,16.8,64,0.00,,,0.00,WUHU21623XXSP,2013-01-31 20:50:00,
2013-01-31 15:52:00,27.1,16.5,29.44,NW,315,16.8,16.8,64,0.00,,,0.00,WUHU21623XXSP,2013-01-31 20:52:00,
2013-01-31 15:54:00,27.1,16.5,29.44,NW,315,16.8,16.8,64,0.00,,,0.00,WUHU21623XXSP,2013-01-31 20:54:00,
2013-01-31 15:56:00,27.1,16.5,29.45,NNW,337,12.1,16.8,64,0.00,,,0.00,WUHU21623XXSP,2013-01-31 20:56:00,
2013-01-31 15:58:00,27.1,16.5,29.46,NNW,337,12.1,16.8,64,0.00,,,0.00,WUHU21623XXSP,2013-01-31 20:58:00,
2013-01-31 16:00:00,27.1,16.5,29.46,NNW,337,12.1,16.8,64,0.00,,,0.00,WUHU21623XXSP,2013-01-31 21:00:00,
2013-01-31 16:02:00,26.2,15.6,29.46,NNW,337,12.1,16.8,64,0.00,,,0.00,WUHU21623XXSP,2013-01-31 21:02:00,
2013-01-31 16:04:00,26.2,18.4,29.46,WSW,247,13.4,13.4,72,0.00,,,0.00,WUHU21623XXSP,2013-01-31 21:04:00,
2013-01-31 16:07:00,26.2,18.4,29.46,WSW,247,13.4,13.4,72,0.00,,,0.00,WUHU21623XXSP,2013-01-31 21:07:00,
2013-01-31 16:09:00,26.2,18.4,29.46,WSW,247,13.4,13.4,72,0.00,,,0.00,WUHU21623XXSP,2013-01-31 21:09:00,
2013-01-31 16:11:00,26.4,18.6,29.46,WSW,247,13.4,13.4,72,0.00,,,0.00,WUHU21623XXSP,2013-01-31 21:11:00,
2013-01-31 16:13:00,26.4,17.2,29.46,West,270,15.7,15.7,68,0.00,,,0.00,WUHU21623XXSP,2013-01-31 21:13:00,
2013-01-31 16:15:00,26.4,16.9,29.46,West,270,15.7,15.7,67,0.00,,,0.00,WUHU21623XXSP,2013-01-31 21:15:00,
2013-01-31 16:17:00,26.4,16.9,29.46,North,0,6.5,15.7,67,0.00,,,0.00,WUHU21623XXSP,2013-01-31 21:17:00,
2013-01-31 16:19:00,26.4,16.9,29.46,North,0,6.5,15.7,67,0.00,,,0.00,WUHU21623XXSP,2013-01-31 21:19:00,
2013-01-31 16:22:00,26.4,16.9,29.46,North,0,6.5,15.7,67,0.00,,,0.00,WUHU21623XXSP,2013-01-31 21:22:00,
2013-01-31 16:24:00,26.4,16.9,29.46,West,270,6.7,15.7,67,0.00,,,0.00,WUHU21623XXSP,2013-01-31 21:24:00,
2013-01-31 16:26:00,26.4,16.9,29.46,West,270,6.7,6.7,67,0.00,,,0.00,WUHU21623XXSP,2013-01-31 21:26:00,
2013-01-31 16:28:00,26.4,16.9,29.46,West,270,6.7,6.7,67,0.00,,,0.00,WUHU21623XXSP,2013-01-31 21:28:00,
2013-01-31 16:30:00,26.4,16.9,29.46,West,270,6.7,6.7,67,0.00,,,0.00,WUHU21623XXSP,2013-01-31 21:30:00,
2013-01-31 16:32:00,26.4,16.9,29.46,West,270,6.7,6.7,67,0.00,,,0.00,WUHU21623XXSP,2013-01-31 21:32:00,
2013-01-31 16:34:00,26.4,16.9,29.46,West,270,6.7,6.7,67,0.00,,,0.00,WUHU21623XXSP,2013-01-31 21:34:00,
2013-01-31 16:50:00,26.2,14.9,29.48,WNW,292,8.9,8.9,62,0.00,,,0.00,WUHU21623XXSP,2013-01-31 21:50:00,
2013-01-31 16:52:00,26.2,14.9,29.48,WNW,292,8.9,8.9,62,0.00,,,0.00,WUHU21623XXSP,2013-01-31 21:52:00,
2013-01-31 16:54:00,26.2,14.9,29.48,NW,315,7.4,8.9,62,0.00,,,0.00,WUHU21623XXSP,2013-01-31 21:54:00,
2013-01-31 16:57:00,26.2,14.6,29.48,NW,315,7.4,8.9,61,0.00,,,0.00,WUHU21623XXSP,2013-01-31 21:57:00,
2013-01-31 16:59:00,26.2,14.6,29.48,WNW,292,7.2,8.9,61,0.00,,,0.00,WUHU21623XXSP,2013-01-31 21:59:00,
2013-01-31 17:01:00,26.2,14.6,29.49,WNW,292,7.2,8.9,61,0.00,,,0.00,WUHU21623XXSP,2013-01-31 22:01:00,
2013-01-31 17:03:00,26.2,14.6,29.49,WNW,292,7.2,7.4,61,0.00,,,0.00,WUHU21623XXSP,2013-01-31 22:03:00,
2013-01-31 17:05:00,26.2,14.6,29.49,WNW,292,7.2,7.4,61,0.00,,,0.00,WUHU21623XXSP,2013-01-31 22:05:00,
2013-01-31 17:07:00,26.2,14.6,29.49,WNW,292,7.2,7.2,61,0.00,,,0.00,WUHU21623XXSP,2013-01-31 22:07:00,
2013-01-31 17:09:00,26.2,14.6,29.49,WNW,292,7.2,7.2,61,0.00,,,0.00,WUHU21623XXSP,2013-01-31 22:09:00,
2013-01-31 17:11:00,26.2,14.6,29.49,WNW,292,7.2,7.2,61,0.00,,,0.00,WUHU21623XXSP,2013-01-31 22:11:00,
2013-01-31 17:13:00,26.4,13.1,29.49,NW,315,5.6,7.2,57,0.00,,,0.00,WUHU21623XXSP,2013-01-31 22:13:00,
2013-01-31 17:16:00,26.4,13.1,29.49,NW,315,5.6,7.2,57,0.00,,,0.00,WUHU21623XXSP,2013-01-31 22:16:00,
2013-01-31 17:18:00,26.4,13.1,29.49,NW,315,5.6,7.2,57,0.00,,,0.00,WUHU21623XXSP,2013-01-31 22:18:00,
2013-01-31 17:20:00,26.4,13.1,29.49,NW,315,5.6,7.2,57,0.00,,,0.00,WUHU21623XXSP,2013-01-31 22:20:00,
2013-01-31 17:22:00,26.4,13.1,29.49,NNW,337,12.3,12.3,57,0.00,,,0.00,WUHU21623XXSP,2013-01-31 22:22:00,
2013-01-31 17:24:00,26.4,13.1,29.50,WSW,247,6.7,12.3,57,0.00,,,0.00,WUHU21623XXSP,2013-01-31 22:24:00,
2013-01-31 17:26:00,26.4,13.1,29.50,WNW,292,14.8,14.8,57,0.00,,,0.00,WUHU21623XXSP,2013-01-31 22:26:00,
2013-01-31 17:28:00,26.4,13.1,29.50,WNW,292,14.8,14.8,57,0.00,,,0.00,WUHU21623XXSP,2013-01-31 22:28:00,
2013-01-31 17:31:00,26.4,13.1,29.50,WNW,292,14.8,14.8,57,0.00,,,0.00,WUHU21623XXSP,2013-01-31 22:31:00,
2013-01-31 17:33:00,26.4,13.1,29.50,WNW,292,14.8,14.8,57,0.00,,,0.00,WUHU21623XXSP,2013-01-31 22:33:00,
2013-01-31 17:35:00,26.4,13.1,29.50,WNW,292,14.8,14.8,57,0.00,,,0.00,WUHU21623XXSP,2013-01-31 22:35:00,
2013-01-31 17:37:00,26.4,13.1,29.50,WNW,292,14.8,14.8,57,0.00,,,0.00,WUHU21623XXSP,2013-01-31 22:37:00,
2013-01-31 17:39:00,26.4,13.1,29.51,WNW,292,14.8,14.8,57,0.00,,,0.00,WUHU21623XXSP,2013-01-31 22:39:00,
2013-01-31 17:41:00,26.4,13.1,29.51,WNW,292,14.8,14.8,57,0.00,,,0.00,WUHU21623XXSP,2013-01-31 22:41:00,
2013-01-31 17:43:00,26.4,13.1,29.51,WNW,292,14.8,14.8,57,0.00,,,0.00,WUHU21623XXSP,2013-01-31 22:43:00,
2013-01-31 17:46:00,26.4,12.7,29.51,West,270,5.4,14.8,56,0.00,,,0.00,WUHU21623XXSP,2013-01-31 22:46:00,
2013-01-31 17:48:00,26.4,12.7,29.51,West,270,7.2,14.8,56,0.00,,,0.00,WUHU21623XXSP,2013-01-31 22:48:00,
2013-01-31 17:50:00,26.4,12.7,29.51,WSW,247,8.3,14.8,56,0.00,,,0.00,WUHU21623XXSP,2013-01-31 22:50:00,
2013-01-31 17:52:00,26.4,12.7,29.51,SW,225,9.4,14.8,56,0.00,,,0.00,WUHU21623XXSP,2013-01-31 22:52:00,
2013-01-31 17:54:00,26.4,12.7,29.51,West,270,10.5,10.5,56,0.00,,,0.00,WUHU21623XXSP,2013-01-31 22:54:00,
2013-01-31 17:56:00,26.4,12.7,29.51,WNW,292,12.8,12.8,56,0.00,,,0.00,WUHU21623XXSP,2013-01-31 22:56:00,
2013-01-31 17:58:00,26.4,12.7,29.52,WNW,292,12.8,12.8,56,0.00,,,0.00,WUHU21623XXSP,2013-01-31 22:58:00,
2013-01-31 18:01:00,26.4,12.7,29.52,WNW,292,12.8,12.8,56,0.00,,,0.00,WUHU21623XXSP,2013-01-31 23:01:00,
2013-01-31 18:03:00,26.4,12.7,29.51,WNW,292,12.8,12.8,56,0.00,,,0.00,WUHU21623XXSP,2013-01-31 23:03:00,
2013-01-31 18:05:00,26.4,12.7,29.51,WNW,292,12.8,12.8,56,0.00,,,0.00,WUHU21623XXSP,2013-01-31 23:05:00,
2013-01-31 18:07:00,26.2,12.6,29.52,WNW,292,12.8,12.8,56,0.00,,,0.00,WUHU21623XXSP,2013-01-31 23:07:00,
2013-01-31 18:09:00,26.2,12.6,29.52,WNW,292,12.8,12.8,56,0.00,,,0.00,WUHU21623XXSP,2013-01-31 23:09:00,
2013-01-31 18:11:00,26.2,12.6,29.52,WNW,292,12.8,12.8,56,0.00,,,0.00,WUHU21623XXSP,2013-01-31 23:11:00,
2013-01-31 18:13:00,26.2,12.6,29.52,WNW,292,12.8,12.8,56,0.00,,,0.00,WUHU21623XXSP,2013-01-31 23:13:00,
2013-01-31 18:15:00,26.2,12.6,29.52,WNW,292,12.8,12.8,56,0.00,,,0.00,WUHU21623XXSP,2013-01-31 23:15:00,
2013-01-31 18:18:00,26.2,12.6,29.52,WNW,292,12.8,12.8,56,0.00,,,0.00,WUHU21623XXSP,2013-01-31 23:18:00,
2013-01-31 18:43:00,25.7,12.9,29.53,WNW,292,3.6,3.6,58,0.00,,,0.00,WUHU21623XXSP,2013-01-31 23:43:00,
2013-01-31 18:46:00,25.7,12.6,29.53,WNW,292,3.6,3.6,57,0.00,,,0.00,WUHU21623XXSP,2013-01-31 23:46:00,
2013-01-31 18:47:00,25.7,12.6,29.53,WNW,292,3.6,3.6,57,0.00,,,0.00,WUHU21623XXSP,2013-01-31 23:47:00,
2013-01-31 18:48:00,25.7,12.6,29.53,WNW,292,3.6,3.6,57,0.00,,,0.00,WUHU21623XXSP,2013-01-31 23:48:00,
2013-01-31 18:49:00,25.7,12.6,29.53,WNW,292,3.6,3.6,57,0.00,,,0.00,WUHU21623XXSP,2013-01-31 23:49:00,
2013-01-31 18:50:00,25.7,12.6,29.53,WNW,292,3.6,3.6,57,0.00,,,0.00,WUHU21623XXSP,2013-01-31 23:50:00,
2013-01-31 18:51:00,25.7,12.5,29.53,WNW,292,25.9,25.9,57,0.00,,,0.00,WUHU21623XXSP,2013-01-31 23:51:00,
2013-01-31 18:52:00,25.7,12.5,29.53,WNW,292,25.9,25.9,57,0.00,,,0.00,WUHU21623XXSP,2013-01-31 23:52:00,
2013-01-31 18:53:00,25.7,12.5,29.53,WNW,292,25.9,25.9,57,0.00,,,0.00,WUHU21623XXSP,2013-01-31 23:53:00,
2013-01-31 18:54:00,25.7,12.5,29.54,WNW,292,25.9,25.9,57,0.00,,,0.00,WUHU21623XXSP,2013-01-31 23:54:00,
2013-01-31 18:55:00,25.7,12.5,29.54,WNW,292,25.9,25.9,57,0.00,,,0.00,WUHU21623XXSP,2013-01-31 23:55:00,
2013-01-31 18:56:00,25.7,12.5,29.54,WNW,292,25.9,25.9,57,0.00,,,0.00,WUHU21623XXSP,2013-01-31 23:56:00,
2013-01-31 18:57:00,25.7,12.5,29.54,WNW,292,25.9,25.9,57,0.00,,,0.00,WUHU21623XXSP,2013-01-31 23:57:00,
2013-01-31 18:59:00,25.7,12.5,29.53,NW,315,8.1,25.9,57,0.00,,,0.00,WUHU21623XXSP,2013-01-31 23:59:00,
2013-01-31 19:01:00,25.7,12.5,29.53,NW,315,8.1,25.9,57,0.00,,,0.00,WUHU21623XXSP,2013-02-01 00:01:00,
2013-01-31 19:03:00,25.7,12.5,29.53,NW,315,8.1,25.9,57,0.00,,,0.00,WUHU21623XXSP,2013-02-01 00:03:00,
2013-01-31 19:05:00,25.7,12.5,29.54,NW,315,8.1,25.9,57,0.00,,,0.00,WUHU21623XXSP,2013-02-01 00:05:00,
2013-01-31 19:07:00,25.7,12.5,29.54,NW,315,8.1,8.1,57,0.00,,,0.00,WUHU21623XXSP,2013-02-01 00:07:00,
2013-01-31 19:10:00,25.7,12.5,29.54,NW,315,8.1,8.1,57,0.00,,,0.00,WUHU21623XXSP,2013-02-01 00:10:00,
2013-01-31 19:12:00,25.7,12.5,29.54,NW,315,8.1,8.1,57,0.00,,,0.00,WUHU21623XXSP,2013-02-01 00:12:00,
2013-01-31 19:14:00,25.7,12.5,29.54,NW,315,8.1,8.1,57,0.00,,,0.00,WUHU21623XXSP,2013-02-01 00:14:00,
2013-01-31 19:16:00,25.7,12.5,29.54,NW,315,8.1,8.1,57,0.00,,,0.00,WUHU21623XXSP,2013-02-01 00:16:00,
2013-01-31 19:42:00,25.7,12.1,29.55,WNW,292,6.5,6.5,56,0.00,,,0.00,WUHU21623XXSP,2013-02-01 00:42:00,
2013-01-31 19:44:00,25.7,12.1,29.55,WNW,292,6.5,6.5,56,0.00,,,0.00,WUHU21623XXSP,2013-02-01 00:44:00,
2013-01-31 19:46:00,25.7,12.1,29.55,West,270,7.8,7.8,56,0.00,,,0.00,WUHU21623XXSP,2013-02-01 00:46:00,
2013-01-31 19:48:00,25.7,12.1,29.55,West,270,7.8,7.8,56,0.00,,,0.00,WUHU21623XXSP,2013-02-01 00:48:00,
2013-01-31 19:50:00,25.7,12.1,29.55,West,270,7.8,7.8,56,0.00,,,0.00,WUHU21623XXSP,2013-02-01 00:50:00,
2013-01-31 19:53:00,25.7,11.7,29.55,West,270,7.8,7.8,55,0.00,,,0.00,WUHU21623XXSP,2013-02-01 00:53:00,
2013-01-31 19:55:00,25.9,11.4,29.55,WSW,247,9.6,9.6,54,0.00,,,0.00,WUHU21623XXSP,2013-02-01 00:55:00,
2013-01-31 19:57:00,25.9,11.4,29.55,WSW,247,9.6,9.6,54,0.00,,,0.00,WUHU21623XXSP,2013-02-01 00:57:00,
2013-01-31 19:59:00,25.9,11.4,29.55,WSW,247,9.6,9.6,54,0.00,,,0.00,WUHU21623XXSP,2013-02-01 00:59:00,
2013-01-31 20:01:00,25.9,11.4,29.55,WSW,247,9.6,9.6,54,0.00,,,0.00,WUHU21623XXSP,2013-02-01 01:01:00,
2013-01-31 20:03:00,25.9,11.4,29.55,WSW,247,9.6,9.6,54,0.00,,,0.00,WUHU21623XXSP,2013-02-01 01:03:00,
2013-01-31 20:05:00,25.9,11.4,29.55,WSW,247,9.6,9.6,54,0.00,,,0.00,WUHU21623XXSP,2013-02-01 01:05:00,
2013-01-31 20:07:00,25.9,11.4,29.55,WSW,247,9.6,9.6,54,0.00,,,0.00,WUHU21623XXSP,2013-02-01 01:07:00,
2013-01-31 20:09:00,25.9,11.4,29.55,WSW,247,9.6,9.6,54,0.00,,,0.00,WUHU21623XXSP,2013-02-01 01:09:00,
2013-01-31 20:12:00,25.9,11.4,29.55,WSW,247,9.6,9.6,54,0.00,,,0.00,WUHU21623XXSP,2013-02-01 01:12:00,
2013-01-31 20:14:00,25.9,11.4,29.55,WSW,247,9.6,9.6,54,0.00,,,0.00,WUHU21623XXSP,2013-02-01 01:14:00,
2013-01-31 20:40:00,25.2,12.0,29.56,WNW,292,6.9,6.9,57,0.00,,,0.00,WUHU21623XXSP,2013-02-01 01:40:00,
2013-01-31 20:42:00,25.2,12.0,29.56,WNW,292,6.9,6.9,57,0.00,,,0.00,WUHU21623XXSP,2013-02-01 01:42:00,
2013-01-31 20:44:00,25.0,12.3,29.56,WNW,292,6.9,6.9,58,0.00,,,0.00,WUHU21623XXSP,2013-02-01 01:44:00,
2013-01-31 20:46:00,25.0,12.3,29.57,WNW,292,6.9,6.9,58,0.00,,,0.00,WUHU21623XXSP,2013-02-01 01:46:00,
2013-01-31 20:48:00,25.0,12.3,29.57,WNW,292,6.9,6.9,58,0.00,,,0.00,WUHU21623XXSP,2013-02-01 01:48:00,
2013-01-31 20:50:00,25.0,12.3,29.57,WNW,292,6.9,6.9,58,0.00,,,0.00,WUHU21623XXSP,2013-02-01 01:50:00,
2013-01-31 20:52:00,25.0,12.3,29.57,WNW,292,6.9,6.9,58,0.00,,,0.00,WUHU21623XXSP,2013-02-01 01:52:00,
2013-01-31 20:54:00,25.0,12.3,29.57,WNW,292,6.9,6.9,58,0.00,,,0.00,WUHU21623XXSP,2013-02-01 01:54:00,
2013-01-31 21:09:00,24.6,12.7,29.58,WSW,247,7.2,7.2,60,0.00,,,0.00,WUHU21623XXSP,2013-02-01 02:09:00,
2013-01-31 21:11:00,24.6,12.7,29.57,WSW,247,7.2,7.2,60,0.00,,,0.00,WUHU21623XXSP,2013-02-01 02:11:00,
2013-01-31 21:14:00,24.6,12.7,29.57,WSW,247,7.2,7.2,60,0.00,,,0.00,WUHU21623XXSP,2013-02-01 02:14:00,
2013-01-31 21:16:00,24.6,12.7,29.58,WSW,247,7.2,7.2,60,0.00,,,0.00,WUHU21623XXSP,2013-02-01 02:16:00,
2013-01-31 21:18:00,24.6,12.7,29.58,WSW,247,7.2,7.2,60,0.00,,,0.00,WUHU21623XXSP,2013-02-01 02:18:00,
2013-01-31 21:20:00,24.6,12.7,29.58,WSW,247,7.2,7.2,60,0.00,,,0.00,WUHU21623XXSP,2013-02-01 02:20:00,
2013-01-31 21:22:00,24.6,12.7,29.57,WSW,247,7.2,7.2,60,0.00,,,0.00,WUHU21623XXSP,2013-02-01 02:22:00,
2013-01-31 21:24:00,24.6,12.7,29.58,WSW,247,7.2,7.2,60,0.00,,,0.00,WUHU21623XXSP,2013-02-01 02:24:00,
2013-01-31 21:26:00,24.6,12.7,29.58,WSW,247,7.2,7.2,60,0.00,,,0.00,WUHU21623XXSP,2013-02-01 02:26:00,
2013-01-31 21:28:00,24.6,12.7,29.58,WSW,247,7.2,7.2,60,0.00,,,0.00,WUHU21623XXSP,2013-02-01 02:28:00,
2013-01-31 21:41:00,24.1,13.6,29.59,West,270,12.8,12.8,64,0.00,,,0.00,WUHU21623XXSP,2013-02-01 02:41:00,
2013-01-31 21:44:00,24.1,13.6,29.58,West,270,4.7,12.8,64,0.00,,,0.00,WUHU21623XXSP,2013-02-01 02:44:00,
2013-01-31 21:46:00,24.1,13.6,29.59,West,270,4.7,12.8,64,0.00,,,0.00,WUHU21623XXSP,2013-02-01 02:46:00,
2013-01-31 21:48:00,24.1,13.6,29.59,West,270,4.7,12.8,64,0.00,,,0.00,WUHU21623XXSP,2013-02-01 02:48:00,
2013-01-31 21:50:00,24.1,13.6,29.58,West,270,4.7,12.8,64,0.00,,,0.00,WUHU21623XXSP,2013-02-01 02:50:00,
2013-01-31 21:52:00,24.1,13.6,29.58,West,270,4.7,4.7,64,0.00,,,0.00,WUHU21623XXSP,2013-02-01 02:52:00,
2013-01-31 21:54:00,24.1,13.6,29.58,West,270,7.8,7.8,66,0.00,,,0.00,WUHU21623XXSP,2013-02-01 02:54:00,
2013-01-31 21:56:00,24.1,14.3,29.58,West,270,7.8,7.8,66,0.00,,,0.00,WUHU21623XXSP,2013-02-01 02:56:00,
2013-01-31 21:59:00,24.1,14.3,29.58,West,270,7.8,7.8,66,0.00,,,0.00,WUHU21623XXSP,2013-02-01 02:59:00,
2013-01-31 22:01:00,24.1,14.3,29.58,West,270,7.8,7.8,66,0.00,,,0.00,WUHU21623XXSP,2013-02-01 03:01:00,
2013-01-31 22:03:00,24.1,14.3,29.58,West,270,7.8,7.8,66,0.00,,,0.00,WUHU21623XXSP,2013-02-01 03:03:00,
2013-01-31 22:05:00,24.1,14.3,29.58,West,270,8.7,8.7,66,0.00,,,0.00,WUHU21623XXSP,2013-02-01 03:05:00,
2013-01-31 22:07:00,24.1,14.6,29.59,West,270,8.7,8.7,67,0.00,,,0.00,WUHU21623XXSP,2013-02-01 03:07:00,
2013-01-31 22:09:00,23.7,14.3,29.59,West,270,8.7,8.7,67,0.00,,,0.00,WUHU21623XXSP,2013-02-01 03:09:00,
2013-01-31 22:11:00,23.7,14.3,29.59,West,270,8.7,8.7,67,0.00,,,0.00,WUHU21623XXSP,2013-02-01 03:11:00,
2013-01-31 22:14:00,23.7,14.3,29.59,West,270,8.7,8.7,67,0.00,,,0.00,WUHU21623XXSP,2013-02-01 03:14:00,
2013-01-31 22:16:00,23.7,14.3,29.59,West,270,8.7,8.7,67,0.00,,,0.00,WUHU21623XXSP,2013-02-01 03:16:00,
2013-01-31 22:18:00,23.7,14.3,29.59,West,270,8.7,8.7,67,0.00,,,0.00,WUHU21623XXSP,2013-02-01 03:18:00,
2013-01-31 22:20:00,23.7,14.3,29.58,West,270,8.7,8.7,67,0.00,,,0.00,WUHU21623XXSP,2013-02-01 03:20:00,
2013-01-31 22:22:00,23.7,14.3,29.58,West,270,8.7,8.7,67,0.00,,,0.00,WUHU21623XXSP,2013-02-01 03:22:00,
2013-01-31 22:24:00,23.7,14.3,29.59,West,270,8.7,8.7,67,0.00,,,0.00,WUHU21623XXSP,2013-02-01 03:24:00,
2013-01-31 22:26:00,23.7,14.3,29.59,West,270,8.7,8.7,67,0.00,,,0.00,WUHU21623XXSP,2013-02-01 03:26:00,
2013-01-31 22:28:00,23.7,14.3,29.59,West,270,8.7,8.7,67,0.00,,,0.00,WUHU21623XXSP,2013-02-01 03:28:00,
2013-01-31 22:48:00,23.7,14.3,29.59,West,270,8.7,8.7,67,0.00,,,0.00,WUHU21623XXSP,2013-02-01 03:48:00,
2013-01-31 23:07:00,22.8,14.5,29.60,NW,315,11.2,11.2,70,0.00,,,0.00,WUHU21623XXSP,2013-02-01 04:07:00,
2013-01-31 23:09:00,22.8,14.5,29.60,West,270,7.6,11.2,70,0.00,,,0.00,WUHU21623XXSP,2013-02-01 04:09:00,
2013-01-31 23:11:00,22.8,14.5,29.60,WNW,292,4.9,11.2,70,0.00,,,0.00,WUHU21623XXSP,2013-02-01 04:11:00,
2013-01-31 23:14:00,22.8,14.5,29.60,WNW,292,1.6,11.2,70,0.00,,,0.00,WUHU21623XXSP,2013-02-01 04:14:00,
2013-01-31 23:16:00,22.8,14.2,29.60,West,270,5.8,11.2,69,0.00,,,0.00,WUHU21623XXSP,2013-02-01 04:16:00,
2013-01-31 23:18:00,22.8,14.2,29.60,SW,225,6.9,7.6,69,0.00,,,0.00,WUHU21623XXSP,2013-02-01 04:18:00,
2013-01-31 23:20:00,22.8,14.2,29.60,WNW,292,4.7,6.9,69,0.00,,,0.00,WUHU21623XXSP,2013-02-01 04:20:00,
2013-01-31 23:22:00,22.8,14.2,29.60,West,270,3.8,6.9,69,0.00,,,0.00,WUHU21623XXSP,2013-02-01 04:22:00,
2013-01-31 23:24:00,22.8,14.2,29.60,West,270,3.4,6.9,69,0.00,,,0.00,WUHU21623XXSP,2013-02-01 04:24:00,
2013-01-31 23:26:00,22.8,13.5,29.60,NW,315,9.4,9.4,67,0.00,,,0.00,WUHU21623XXSP,2013-02-01 04:26:00,
2013-01-31 23:28:00,22.8,13.5,29.61,NW,315,9.4,9.4,67,0.00,,,0.00,WUHU21623XXSP,2013-02-01 04:28:00,
2013-01-31 23:31:00,22.8,13.1,29.61,WSW,247,11.0,11.0,66,0.00,,,0.00,WUHU21623XXSP,2013-02-01 04:31:00,
2013-01-31 23:33:00,22.8,13.1,29.61,West,270,3.4,11.0,66,0.00,,,0.00,WUHU21623XXSP,2013-02-01 04:33:00,
2013-01-31 23:35:00,22.8,13.1,29.61,West,270,3.8,11.0,66,0.00,,,0.00,WUHU21623XXSP,2013-02-01 04:35:00,
2013-01-31 23:37:00,22.8,13.1,29.61,WNW,292,7.2,11.0,66,0.00,,,0.00,WUHU21623XXSP,2013-02-01 04:37:00,
2013-01-31 23:39:00,22.8,12.7,29.61,WNW,292,8.3,11.0,65,0.00,,,0.00,WUHU21623XXSP,2013-02-01 04:39:00,
2013-01-31 23:41:00,22.8,12.7,29.61,WNW,292,6.5,8.3,65,0.00,,,0.00,WUHU21623XXSP,2013-02-01 04:41:00,
2013-01-31 23:44:00,22.8,12.7,29.61,NW,315,8.1,8.3,65,0.00,,,0.00,WUHU21623XXSP,2013-02-01 04:44:00,
2013-01-31 23:46:00,22.8,12.7,29.61,NW,315,8.1,8.3,65,0.00,,,0.00,WUHU21623XXSP,2013-02-01 04:46:00,
2013-01-31 23:48:00,22.8,12.7,29.60,NW,315,3.1,8.3,65,0.00,,,0.00,WUHU21623XXSP,2013-02-01 04:48:00,
2013-01-31 23:50:00,22.8,12.7,29.60,WSW,247,13.0,13.0,65,0.00,,,0.00,WUHU21623XXSP,2013-02-01 04:50:00,
2013-01-31 23:52:00,22.8,13.1,29.60,West,270,8.3,13.0,66,0.00,,,0.00,WUHU21623XXSP,2013-02-01 04:52:00,
2013-01-31 23:54:00,22.8,12.7,29.61,WSW,247,8.3,13.0,65,0.00,,,0.00,WUHU21623XXSP,2013-02-01 04:54:00,
2013-01-31 23:56:00,22.6,12.6,29.61,WSW,247,10.7,13.0,65,0.00,,,0.00,WUHU21623XXSP,2013-02-01 04:56:00,
2013-01-31 23:58:00,22.6,12.6,29.60,West,270,6.3,13.0,65,0.00,,,0.00,WUHU21623XXSP,2013-02-01 04:58:00,